Time,TemperatureF,DewpointF,PressureIn,WindDirection,WindDirectionDegrees,WindSpeedMPH,WindSpeedGustMPH,Humidity,HourlyPrecipIn,Conditions,Clouds,dailyrainin,SoftwareType,DateUTC
2013-09-10 00:00:00,54.1,50.0,30.08,West,276,0.0,1.0,86,0.00,,,0.00,Wunderground v.1.15,2013-09-10 04:00:00,
2013-09-10 00:01:00,54.1,50.0,30.08,West,276,0.0,1.0,86,0.00,,,0.00,Wunderground v.1.15,2013-09-10 04:01:00,
2013-09-10 00:04:00,54.0,50.2,30.08,West,276,0.0,1.0,87,0.00,,,0.00,Wunderground v.1.15,2013-09-10 04:04:00,
2013-09-10 00:05:00,54.0,50.2,30.08,West,276,0.0,1.0,87,0.00,,,0.00,Wunderground v.1.15,2013-09-10 04:05:00,
2013-09-10 00:09:00,54.0,50.2,30.08,West,281,0.0,1.0,87,0.00,,,0.00,Wunderground v.1.15,2013-09-10 04:09:00,
2013-09-10 00:10:00,53.9,50.1,30.08,West,281,0.0,0.0,87,0.00,,,0.00,Wunderground v.1.15,2013-09-10 04:10:00,
2013-09-10 00:11:00,53.9,50.1,30.08,West,281,0.0,0.0,87,0.00,,,0.00,Wunderground v.1.15,2013-09-10 04:11:00,
2013-09-10 00:14:00,53.9,50.1,30.08,WSW,246,0.0,0.0,87,0.00,,,0.00,Wunderground v.1.15,2013-09-10 04:14:00,
2013-09-10 00:17:00,53.8,50.0,30.08,WSW,246,0.0,0.0,87,0.00,,,0.00,Wunderground v.1.15,2013-09-10 04:17:00,
2013-09-10 00:18:00,53.8,50.0,30.08,West,269,2.0,2.0,87,0.00,,,0.00,Wunderground v.1.15,2013-09-10 04:18:00,
2013-09-10 00:22:00,53.8,50.3,30.08,NW,308,2.0,2.0,88,0.00,,,0.00,Wunderground v.1.15,2013-09-10 04:22:00,
2013-09-10 00:24:00,54.0,50.5,30.08,NNW,331,2.0,2.0,88,0.00,,,0.00,Wunderground v.1.15,2013-09-10 04:24:00,
2013-09-10 00:25:00,54.0,50.5,30.08,NNW,337,0.0,2.0,88,0.00,,,0.00,Wunderground v.1.15,2013-09-10 04:25:00,
2013-09-10 00:26:00,54.1,50.6,30.08,WNW,287,3.0,3.0,88,0.00,,,0.00,Wunderground v.1.15,2013-09-10 04:26:00,
2013-09-10 00:27:00,54.1,50.6,30.08,West,278,0.0,3.0,88,0.00,,,0.00,Wunderground v.1.15,2013-09-10 04:27:00,
2013-09-10 00:29:00,54.2,50.4,30.08,West,278,0.0,3.0,87,0.00,,,0.00,Wunderground v.1.15,2013-09-10 04:29:00,
2013-09-10 00:31:00,54.2,50.4,30.08,WNW,286,1.0,1.0,87,0.00,,,0.00,Wunderground v.1.15,2013-09-10 04:31:00,
2013-09-10 00:32:00,54.2,50.4,30.08,WNW,286,0.0,1.0,87,0.00,,,0.00,Wunderground v.1.15,2013-09-10 04:32:00,
2013-09-10 00:33:00,54.2,50.4,30.09,WNW,286,0.0,1.0,87,0.00,,,0.00,Wunderground v.1.15,2013-09-10 04:33:00,
2013-09-10 00:35:00,54.3,50.5,30.08,WNW,286,0.0,1.0,87,0.00,,,0.00,Wunderground v.1.15,2013-09-10 04:35:00,
2013-09-10 00:38:00,54.2,50.4,30.08,WNW,286,0.0,1.0,87,0.00,,,0.00,Wunderground v.1.15,2013-09-10 04:38:00,
2013-09-10 00:39:00,54.3,50.5,30.08,WNW,286,0.0,1.0,87,0.00,,,0.00,Wunderground v.1.15,2013-09-10 04:39:00,
2013-09-10 00:41:00,54.3,50.8,30.09,WNW,286,0.0,0.0,88,0.00,,,0.00,Wunderground v.1.15,2013-09-10 04:41:00,
2013-09-10 00:44:00,54.4,50.9,30.09,WNW,286,1.0,1.0,88,0.00,,,0.00,Wunderground v.1.15,2013-09-10 04:44:00,
2013-09-10 00:46:00,54.5,51.0,30.09,NW,326,0.0,1.0,88,0.00,,,0.00,Wunderground v.1.15,2013-09-10 04:46:00,
2013-09-10 00:47:00,54.6,51.1,30.09,NNW,340,0.0,1.0,88,0.00,,,0.00,Wunderground v.1.15,2013-09-10 04:47:00,
2013-09-10 00:49:00,54.8,51.3,30.09,NNE,18,0.0,1.0,88,0.00,,,0.00,Wunderground v.1.15,2013-09-10 04:49:00,
2013-09-10 00:51:00,54.8,51.0,30.09,NNE,18,0.0,0.0,87,0.00,,,0.00,Wunderground v.1.15,2013-09-10 04:51:00,
2013-09-10 00:53:00,55.0,51.5,30.09,NNW,347,4.0,8.0,88,0.00,,,0.00,Wunderground v.1.15,2013-09-10 04:53:00,
2013-09-10 00:54:00,55.0,51.5,30.09,North,10,0.0,8.0,88,0.00,,,0.00,Wunderground v.1.15,2013-09-10 04:54:00,
2013-09-10 00:55:00,55.2,51.7,30.09,North,10,1.0,8.0,88,0.00,,,0.00,Wunderground v.1.15,2013-09-10 04:55:00,
2013-09-10 00:56:00,55.3,51.8,30.09,NW,321,0.0,8.0,88,0.00,,,0.00,Wunderground v.1.15,2013-09-10 04:56:00,
2013-09-10 00:59:00,55.4,51.6,30.09,WSW,238,0.0,8.0,87,0.00,,,0.00,Wunderground v.1.15,2013-09-10 04:59:00,
2013-09-10 01:00:00,55.5,51.7,30.09,WSW,238,0.0,1.0,87,0.00,,,0.00,Wunderground v.1.15,2013-09-10 05:00:00,
2013-09-10 01:02:00,55.5,51.7,30.09,WSW,238,0.0,1.0,87,0.00,,,0.00,Wunderground v.1.15,2013-09-10 05:02:00,
2013-09-10 01:03:00,55.5,51.7,30.09,WSW,238,0.0,1.0,87,0.00,,,0.00,Wunderground v.1.15,2013-09-10 05:03:00,
2013-09-10 01:04:00,55.5,51.4,30.09,WNW,300,3.0,3.0,86,0.00,,,0.00,Wunderground v.1.15,2013-09-10 05:04:00,
2013-09-10 01:05:00,55.5,51.7,30.09,SE,137,0.0,3.0,87,0.00,,,0.00,Wunderground v.1.15,2013-09-10 05:05:00,
2013-09-10 01:06:00,55.5,51.7,30.09,ESE,108,0.0,3.0,87,0.00,,,0.00,Wunderground v.1.15,2013-09-10 05:06:00,
2013-09-10 01:08:00,55.5,51.7,30.09,NNW,329,3.0,3.0,87,0.00,,,0.00,Wunderground v.1.15,2013-09-10 05:08:00,
2013-09-10 01:10:00,55.5,51.7,30.09,West,275,1.0,1.0,87,0.00,,,0.00,Wunderground v.1.15,2013-09-10 05:10:00,
2013-09-10 01:11:00,55.5,51.7,30.09,West,275,1.0,1.0,87,0.00,,,0.00,Wunderground v.1.15,2013-09-10 05:11:00,
2013-09-10 01:15:00,55.4,51.6,30.09,SSW,207,0.0,2.0,87,0.00,,,0.00,Wunderground v.1.15,2013-09-10 05:15:00,
2013-09-10 01:16:00,55.4,51.6,30.09,SSW,207,1.0,2.0,87,0.00,,,0.00,Wunderground v.1.15,2013-09-10 05:16:00,
2013-09-10 01:17:00,55.4,51.6,30.09,SSW,207,0.0,2.0,87,0.00,,,0.00,Wunderground v.1.15,2013-09-10 05:17:00,
2013-09-10 01:18:00,55.4,51.6,30.09,SSW,207,0.0,2.0,87,0.00,,,0.00,Wunderground v.1.15,2013-09-10 05:18:00,
2013-09-10 01:22:00,55.3,51.5,30.09,SSW,207,0.0,0.0,87,0.00,,,0.00,Wunderground v.1.15,2013-09-10 05:22:00,
2013-09-10 01:23:00,55.3,51.5,30.09,South,184,0.0,0.0,87,0.00,,,0.00,Wunderground v.1.15,2013-09-10 05:23:00,
2013-09-10 01:24:00,55.2,51.4,30.09,SW,217,1.0,1.0,87,0.00,,,0.00,Wunderground v.1.15,2013-09-10 05:24:00,
2013-09-10 01:25:00,55.2,51.4,30.09,South,188,0.0,1.0,87,0.00,,,0.00,Wunderground v.1.15,2013-09-10 05:25:00,
2013-09-10 01:27:00,55.1,51.6,30.09,SW,215,2.0,2.0,88,0.00,,,0.00,Wunderground v.1.15,2013-09-10 05:27:00,
2013-09-10 01:28:00,55.1,51.6,30.09,WSW,238,0.0,2.0,88,0.00,,,0.00,Wunderground v.1.15,2013-09-10 05:28:00,
2013-09-10 01:30:00,55.1,51.6,30.09,North,360,1.0,1.0,88,0.00,,,0.00,Wunderground v.1.15,2013-09-10 05:30:00,
2013-09-10 01:32:00,55.0,51.5,30.09,SSE,158,0.0,1.0,88,0.00,,,0.00,Wunderground v.1.15,2013-09-10 05:32:00,
2013-09-10 01:36:00,55.0,51.8,30.09,SSE,152,0.0,1.0,89,0.00,,,0.00,Wunderground v.1.15,2013-09-10 05:36:00,
2013-09-10 01:37:00,55.0,51.8,30.09,South,173,2.0,2.0,89,0.00,,,0.00,Wunderground v.1.15,2013-09-10 05:37:00,
2013-09-10 01:39:00,55.0,51.8,30.09,SW,219,0.0,3.0,89,0.00,,,0.00,Wunderground v.1.15,2013-09-10 05:39:00,
2013-09-10 01:40:00,55.0,51.8,30.09,SW,219,0.0,1.0,89,0.00,,,0.00,Wunderground v.1.15,2013-09-10 05:40:00,
2013-09-10 01:41:00,55.0,51.8,30.09,SSW,192,0.0,1.0,89,0.00,,,0.00,Wunderground v.1.15,2013-09-10 05:41:00,
2013-09-10 01:43:00,55.0,51.8,30.09,SSE,165,0.0,1.0,89,0.00,,,0.00,Wunderground v.1.15,2013-09-10 05:43:00,
2013-09-10 01:44:00,55.0,51.8,30.09,SSW,204,1.0,1.0,89,0.00,,,0.00,Wunderground v.1.15,2013-09-10 05:44:00,
2013-09-10 01:46:00,55.0,51.8,30.09,SW,236,0.0,1.0,89,0.00,,,0.00,Wunderground v.1.15,2013-09-10 05:46:00,
2013-09-10 01:48:00,55.0,51.8,30.09,SW,236,0.0,1.0,89,0.00,,,0.00,Wunderground v.1.15,2013-09-10 05:48:00,
2013-09-10 01:50:00,55.0,51.8,30.09,SW,236,0.0,0.0,89,0.00,,,0.00,Wunderground v.1.15,2013-09-10 05:50:00,
2013-09-10 01:51:00,55.0,51.8,30.09,SW,236,0.0,0.0,89,0.00,,,0.00,Wunderground v.1.15,2013-09-10 05:51:00,
2013-09-10 01:54:00,55.0,51.8,30.09,SW,236,0.0,1.0,89,0.00,,,0.00,Wunderground v.1.15,2013-09-10 05:54:00,
2013-09-10 01:56:00,54.9,51.7,30.09,WSW,242,0.0,1.0,89,0.00,,,0.00,Wunderground v.1.15,2013-09-10 05:56:00,
2013-09-10 01:57:00,54.9,51.7,30.09,WSW,242,0.0,1.0,89,0.00,,,0.00,Wunderground v.1.15,2013-09-10 05:57:00,
2013-09-10 02:00:00,54.8,51.9,30.09,ESE,120,0.0,0.0,90,0.00,,,0.00,Wunderground v.1.15,2013-09-10 06:00:00,
2013-09-10 02:01:00,54.8,51.9,30.09,ESE,120,0.0,0.0,90,0.00,,,0.00,Wunderground v.1.15,2013-09-10 06:01:00,
2013-09-10 02:02:00,54.8,51.9,30.09,ESE,112,0.0,0.0,90,0.00,,,0.00,Wunderground v.1.15,2013-09-10 06:02:00,
2013-09-10 02:05:00,54.9,52.0,30.09,SE,142,1.0,1.0,90,0.00,,,0.00,Wunderground v.1.15,2013-09-10 06:05:00,
2013-09-10 02:06:00,54.9,52.0,30.09,SE,142,0.0,1.0,90,0.00,,,0.00,Wunderground v.1.15,2013-09-10 06:06:00,
2013-09-10 02:07:00,54.9,52.0,30.09,SE,142,0.0,1.0,90,0.00,,,0.00,Wunderground v.1.15,2013-09-10 06:07:00,
2013-09-10 02:10:00,54.9,52.0,30.09,SE,142,0.0,0.0,90,0.00,,,0.00,Wunderground v.1.15,2013-09-10 06:10:00,
2013-09-10 02:11:00,54.9,52.0,30.09,SE,142,0.0,0.0,90,0.00,,,0.00,Wunderground v.1.15,2013-09-10 06:11:00,
2013-09-10 02:12:00,55.0,52.1,30.09,SE,142,0.0,0.0,90,0.00,,,0.00,Wunderground v.1.15,2013-09-10 06:12:00,
2013-09-10 02:15:00,54.9,52.0,30.08,SE,142,0.0,1.0,90,0.00,,,0.00,Wunderground v.1.15,2013-09-10 06:15:00,
2013-09-10 02:16:00,54.9,52.0,30.08,SE,142,0.0,1.0,90,0.00,,,0.00,Wunderground v.1.15,2013-09-10 06:16:00,
2013-09-10 02:17:00,54.9,52.0,30.08,SE,142,0.0,1.0,90,0.00,,,0.00,Wunderground v.1.15,2013-09-10 06:17:00,
2013-09-10 02:18:00,54.9,52.3,30.08,SE,144,0.0,6.0,91,0.00,,,0.00,Wunderground v.1.15,2013-09-10 06:18:00,
2013-09-10 02:19:00,54.9,52.3,30.08,SE,144,0.0,6.0,91,0.00,,,0.00,Wunderground v.1.15,2013-09-10 06:19:00,
2013-09-10 02:20:00,55.0,52.4,30.08,SE,144,0.0,0.0,91,0.00,,,0.00,Wunderground v.1.15,2013-09-10 06:20:00,
2013-09-10 02:22:00,55.1,52.5,30.08,SE,126,0.0,1.0,91,0.00,,,0.00,Wunderground v.1.15,2013-09-10 06:22:00,
2013-09-10 02:24:00,55.2,52.6,30.08,ESE,102,0.0,2.0,91,0.00,,,0.00,Wunderground v.1.15,2013-09-10 06:24:00,
2013-09-10 02:26:00,55.4,52.8,30.08,ESE,102,0.0,2.0,91,0.00,,,0.00,Wunderground v.1.15,2013-09-10 06:26:00,
2013-09-10 02:27:00,55.4,52.5,30.08,SE,132,2.0,7.0,90,0.00,,,0.00,Wunderground v.1.15,2013-09-10 06:27:00,
2013-09-10 02:29:00,55.6,52.7,30.08,SSE,154,0.0,7.0,90,0.00,,,0.00,Wunderground v.1.15,2013-09-10 06:29:00,
2013-09-10 02:30:00,55.7,52.8,30.08,SSE,154,0.0,0.0,90,0.00,,,0.00,Wunderground v.1.15,2013-09-10 06:30:00,
2013-09-10 02:31:00,55.7,52.8,30.08,SSE,154,0.0,0.0,90,0.00,,,0.00,Wunderground v.1.15,2013-09-10 06:31:00,
2013-09-10 02:32:00,55.8,52.9,30.08,South,180,0.0,3.0,90,0.00,,,0.00,Wunderground v.1.15,2013-09-10 06:32:00,
2013-09-10 02:33:00,55.8,52.6,30.08,South,180,0.0,3.0,89,0.00,,,0.00,Wunderground v.1.15,2013-09-10 06:33:00,
2013-09-10 02:34:00,55.8,52.6,30.07,ESE,109,0.0,3.0,89,0.00,,,0.00,Wunderground v.1.15,2013-09-10 06:34:00,
2013-09-10 02:35:00,55.9,52.7,30.07,ENE,77,0.0,3.0,89,0.00,,,0.00,Wunderground v.1.15,2013-09-10 06:35:00,
2013-09-10 02:36:00,55.9,52.7,30.07,East,79,0.0,3.0,89,0.00,,,0.00,Wunderground v.1.15,2013-09-10 06:36:00,
2013-09-10 02:38:00,55.9,52.7,30.07,ENE,62,0.0,3.0,89,0.00,,,0.00,Wunderground v.1.15,2013-09-10 06:38:00,
2013-09-10 02:40:00,55.9,52.7,30.07,ENE,74,0.0,0.0,89,0.00,,,0.00,Wunderground v.1.15,2013-09-10 06:40:00,
2013-09-10 02:41:00,55.9,52.7,30.07,NE,49,0.0,2.0,89,0.00,,,0.00,Wunderground v.1.15,2013-09-10 06:41:00,
2013-09-10 02:43:00,55.9,52.7,30.07,East,91,0.0,2.0,89,0.00,,,0.00,Wunderground v.1.15,2013-09-10 06:43:00,
2013-09-10 02:46:00,55.9,52.7,30.08,NNE,24,3.0,3.0,89,0.00,,,0.00,Wunderground v.1.15,2013-09-10 06:46:00,
2013-09-10 02:48:00,56.0,52.8,30.07,SE,139,0.0,3.0,89,0.00,,,0.00,Wunderground v.1.15,2013-09-10 06:48:00,
2013-09-10 02:51:00,56.1,52.9,30.07,SW,227,1.0,2.0,89,0.00,,,0.00,Wunderground v.1.15,2013-09-10 06:51:00,
2013-09-10 02:52:00,56.1,52.9,30.07,NNW,335,0.0,2.0,89,0.00,,,0.00,Wunderground v.1.15,2013-09-10 06:52:00,
2013-09-10 02:53:00,56.2,53.0,30.07,West,265,0.0,2.0,89,0.00,,,0.00,Wunderground v.1.15,2013-09-10 06:53:00,
2013-09-10 02:54:00,56.2,53.0,30.07,West,266,0.0,2.0,89,0.00,,,0.00,Wunderground v.1.15,2013-09-10 06:54:00,
2013-09-10 02:57:00,56.2,53.0,30.07,WSW,240,0.0,3.0,89,0.00,,,0.00,Wunderground v.1.15,2013-09-10 06:57:00,
2013-09-10 02:58:00,56.2,53.0,30.08,West,280,0.0,3.0,89,0.00,,,0.00,Wunderground v.1.15,2013-09-10 06:58:00,
2013-09-10 02:59:00,56.2,53.0,30.08,West,280,0.0,3.0,89,0.00,,,0.00,Wunderground v.1.15,2013-09-10 06:59:00,
2013-09-10 03:02:00,56.2,53.0,30.07,West,273,0.0,0.0,89,0.00,,,0.00,Wunderground v.1.15,2013-09-10 07:02:00,
2013-09-10 03:03:00,56.2,53.0,30.07,West,261,0.0,1.0,89,0.00,,,0.00,Wunderground v.1.15,2013-09-10 07:03:00,
2013-09-10 03:04:00,56.2,53.0,30.07,West,261,0.0,1.0,89,0.00,,,0.00,Wunderground v.1.15,2013-09-10 07:04:00,
2013-09-10 03:06:00,56.2,53.0,30.07,West,261,0.0,1.0,89,0.00,,,0.00,Wunderground v.1.15,2013-09-10 07:06:00,
2013-09-10 03:07:00,56.1,52.9,30.08,West,261,0.0,1.0,89,0.00,,,0.00,Wunderground v.1.15,2013-09-10 07:07:00,
2013-09-10 03:08:00,56.1,53.8,30.07,West,261,0.0,1.0,92,0.00,,,0.00,Wunderground v.1.15,2013-09-10 07:08:00,
2013-09-10 03:09:00,56.1,52.9,30.07,West,261,0.0,1.0,89,0.00,,,0.00,Wunderground v.1.15,2013-09-10 07:09:00,
2013-09-10 03:12:00,56.0,52.8,30.07,SSE,161,2.0,2.0,89,0.00,,,0.00,Wunderground v.1.15,2013-09-10 07:12:00,
2013-09-10 03:13:00,56.0,52.8,30.07,WNW,300,0.0,2.0,89,0.00,,,0.00,Wunderground v.1.15,2013-09-10 07:13:00,
2013-09-10 03:14:00,56.1,53.2,30.07,WNW,300,0.0,2.0,90,0.00,,,0.00,Wunderground v.1.15,2013-09-10 07:14:00,
2013-09-10 03:18:00,56.1,53.2,30.07,SSW,207,0.0,3.0,90,0.00,,,0.00,Wunderground v.1.15,2013-09-10 07:18:00,
2013-09-10 03:19:00,56.1,53.2,30.07,SSW,207,0.0,3.0,90,0.00,,,0.00,Wunderground v.1.15,2013-09-10 07:19:00,
2013-09-10 03:23:00,56.0,53.1,30.07,SSW,207,0.0,2.0,90,0.00,,,0.00,Wunderground v.1.15,2013-09-10 07:23:00,
2013-09-10 03:24:00,56.0,53.1,30.07,SSW,207,0.0,2.0,90,0.00,,,0.00,Wunderground v.1.15,2013-09-10 07:24:00,
2013-09-10 03:28:00,55.8,52.9,30.06,West,277,0.0,3.0,90,0.00,,,0.00,Wunderground v.1.15,2013-09-10 07:28:00,
2013-09-10 03:29:00,55.7,52.8,30.06,West,277,0.0,3.0,90,0.00,,,0.00,Wunderground v.1.15,2013-09-10 07:29:00,
2013-09-10 03:30:00,55.7,52.8,30.06,NW,304,2.0,3.0,90,0.00,,,0.00,Wunderground v.1.15,2013-09-10 07:30:00,
2013-09-10 03:33:00,55.6,52.7,30.06,West,271,0.0,4.0,90,0.00,,,0.00,Wunderground v.1.15,2013-09-10 07:33:00,
2013-09-10 03:34:00,55.6,52.7,30.06,West,265,0.0,4.0,90,0.00,,,0.00,Wunderground v.1.15,2013-09-10 07:34:00,
2013-09-10 03:35:00,55.6,52.7,30.06,NNW,346,2.0,4.0,90,0.00,,,0.00,Wunderground v.1.15,2013-09-10 07:35:00,
2013-09-10 03:36:00,55.5,52.9,30.06,ESE,122,1.0,5.0,91,0.00,,,0.00,Wunderground v.1.15,2013-09-10 07:36:00,
2013-09-10 03:38:00,55.5,52.9,30.06,South,181,0.0,5.0,91,0.00,,,0.00,Wunderground v.1.15,2013-09-10 07:38:00,
2013-09-10 03:39:00,55.5,52.9,30.06,WNW,302,0.0,5.0,91,0.00,,,0.00,Wunderground v.1.15,2013-09-10 07:39:00,
2013-09-10 03:40:00,55.5,52.9,30.06,NW,321,0.0,1.0,91,0.00,,,0.00,Wunderground v.1.15,2013-09-10 07:40:00,
2013-09-10 03:41:00,55.5,52.9,30.07,NW,304,0.0,1.0,91,0.00,,,0.00,Wunderground v.1.15,2013-09-10 07:41:00,
2013-09-10 03:43:00,55.5,52.9,30.07,NW,304,0.0,1.0,91,0.00,,,0.00,Wunderground v.1.15,2013-09-10 07:43:00,
2013-09-10 03:45:00,55.4,52.8,30.07,NW,304,0.0,1.0,91,0.00,,,0.00,Wunderground v.1.15,2013-09-10 07:45:00,
2013-09-10 03:46:00,55.4,52.8,30.07,NW,304,0.0,1.0,91,0.00,,,0.00,Wunderground v.1.15,2013-09-10 07:46:00,
2013-09-10 03:47:00,55.3,52.7,30.07,NW,304,1.0,1.0,91,0.00,,,0.00,Wunderground v.1.15,2013-09-10 07:47:00,
2013-09-10 03:48:00,55.3,52.7,30.07,NNW,341,0.0,4.0,91,0.00,,,0.00,Wunderground v.1.15,2013-09-10 07:48:00,
2013-09-10 03:50:00,55.3,52.7,30.07,NNW,329,0.0,1.0,91,0.00,,,0.00,Wunderground v.1.15,2013-09-10 07:50:00,
2013-09-10 03:51:00,55.3,52.7,30.07,NNW,329,0.0,1.0,91,0.00,,,0.00,Wunderground v.1.15,2013-09-10 07:51:00,
2013-09-10 03:52:00,55.2,52.6,30.07,NNW,329,0.0,1.0,91,0.00,,,0.00,Wunderground v.1.15,2013-09-10 07:52:00,
2013-09-10 03:53:00,55.2,52.9,30.07,NNW,329,0.0,1.0,92,0.00,,,0.00,Wunderground v.1.15,2013-09-10 07:53:00,
2013-09-10 03:54:00,55.2,52.9,30.07,NNW,329,0.0,1.0,92,0.00,,,0.00,Wunderground v.1.15,2013-09-10 07:54:00,
2013-09-10 03:55:00,55.1,52.8,30.08,NNW,329,0.0,1.0,92,0.00,,,0.00,Wunderground v.1.15,2013-09-10 07:55:00,
2013-09-10 03:56:00,55.1,52.8,30.07,NNW,329,0.0,1.0,92,0.00,,,0.00,Wunderground v.1.15,2013-09-10 07:56:00,
2013-09-10 03:58:00,55.0,52.7,30.07,NW,311,0.0,3.0,92,0.00,,,0.00,Wunderground v.1.15,2013-09-10 07:58:00,
2013-09-10 03:59:00,55.0,52.7,30.07,NW,311,0.0,3.0,92,0.00,,,0.00,Wunderground v.1.15,2013-09-10 07:59:00,
2013-09-10 04:00:00,55.0,52.7,30.07,NW,311,0.0,3.0,92,0.00,,,0.00,Wunderground v.1.15,2013-09-10 08:00:00,
2013-09-10 04:02:00,55.0,52.7,30.08,NW,311,1.0,1.0,92,0.00,,,0.00,Wunderground v.1.15,2013-09-10 08:02:00,
2013-09-10 04:03:00,55.0,52.7,30.08,NW,311,0.0,1.0,92,0.00,,,0.00,Wunderground v.1.15,2013-09-10 08:03:00,
2013-09-10 04:04:00,55.0,52.7,30.08,NW,310,0.0,1.0,92,0.00,,,0.00,Wunderground v.1.15,2013-09-10 08:04:00,
2013-09-10 04:05:00,55.0,52.7,30.08,NW,311,0.0,1.0,92,0.00,,,0.00,Wunderground v.1.15,2013-09-10 08:05:00,
2013-09-10 04:08:00,55.0,52.7,30.08,NW,311,0.0,1.0,92,0.00,,,0.00,Wunderground v.1.15,2013-09-10 08:08:00,
2013-09-10 04:09:00,55.1,52.8,30.08,WNW,302,0.0,4.0,92,0.00,,,0.00,Wunderground v.1.15,2013-09-10 08:09:00,
2013-09-10 04:10:00,55.1,52.8,30.08,WNW,302,0.0,0.0,92,0.00,,,0.00,Wunderground v.1.15,2013-09-10 08:10:00,
2013-09-10 04:11:00,55.1,52.8,30.08,WNW,302,0.0,0.0,92,0.00,,,0.00,Wunderground v.1.15,2013-09-10 08:11:00,
2013-09-10 04:13:00,55.1,52.8,30.08,WNW,302,0.0,0.0,92,0.00,,,0.00,Wunderground v.1.15,2013-09-10 08:13:00,
2013-09-10 04:14:00,55.1,52.8,30.08,WNW,302,1.0,2.0,92,0.00,,,0.00,Wunderground v.1.15,2013-09-10 08:14:00,
2013-09-10 04:15:00,55.2,52.9,30.08,NW,316,0.0,2.0,92,0.00,,,0.00,Wunderground v.1.15,2013-09-10 08:15:00,
2013-09-10 04:16:00,55.2,52.9,30.07,NW,316,1.0,2.0,92,0.00,,,0.00,Wunderground v.1.15,2013-09-10 08:16:00,
2013-09-10 04:18:00,55.3,53.0,30.07,NW,316,0.0,2.0,92,0.00,,,0.00,Wunderground v.1.15,2013-09-10 08:18:00,
2013-09-10 04:19:00,55.3,53.0,30.07,NW,316,1.0,2.0,92,0.00,,,0.00,Wunderground v.1.15,2013-09-10 08:19:00,
2013-09-10 04:21:00,55.3,53.0,30.07,NW,316,0.0,0.0,92,0.00,,,0.00,Wunderground v.1.15,2013-09-10 08:21:00,
2013-09-10 04:22:00,55.3,53.0,30.07,NW,316,0.0,1.0,92,0.00,,,0.00,Wunderground v.1.15,2013-09-10 08:22:00,
2013-09-10 04:23:00,55.3,53.0,30.07,NW,316,0.0,1.0,92,0.00,,,0.00,Wunderground v.1.15,2013-09-10 08:23:00,
2013-09-10 04:24:00,55.3,53.0,30.07,NW,316,0.0,1.0,92,0.00,,,0.00,Wunderground v.1.15,2013-09-10 08:24:00,
2013-09-10 04:25:00,55.4,53.1,30.07,NW,316,1.0,1.0,92,0.00,,,0.00,Wunderground v.1.15,2013-09-10 08:25:00,
2013-09-10 04:26:00,55.4,53.1,30.07,NW,316,0.0,1.0,92,0.00,,,0.00,Wunderground v.1.15,2013-09-10 08:26:00,
2013-09-10 04:27:00,55.4,53.1,30.07,NW,316,0.0,1.0,92,0.00,,,0.00,Wunderground v.1.15,2013-09-10 08:27:00,
2013-09-10 04:28:00,55.4,53.1,30.07,NW,316,0.0,1.0,92,0.00,,,0.00,Wunderground v.1.15,2013-09-10 08:28:00,
2013-09-10 04:29:00,55.4,53.1,30.07,NW,316,0.0,1.0,92,0.00,,,0.00,Wunderground v.1.15,2013-09-10 08:29:00,
2013-09-10 04:30:00,55.4,53.1,30.07,NW,316,0.0,0.0,92,0.00,,,0.00,Wunderground v.1.15,2013-09-10 08:30:00,
2013-09-10 04:32:00,55.5,53.2,30.07,NW,316,0.0,0.0,92,0.00,,,0.00,Wunderground v.1.15,2013-09-10 08:32:00,
2013-09-10 04:33:00,55.5,53.2,30.07,NW,316,0.0,0.0,92,0.00,,,0.00,Wunderground v.1.15,2013-09-10 08:33:00,
2013-09-10 04:34:00,55.5,53.2,30.07,NW,316,0.0,0.0,92,0.00,,,0.00,Wunderground v.1.15,2013-09-10 08:34:00,
2013-09-10 04:36:00,55.6,53.3,30.06,West,278,0.0,2.0,92,0.00,,,0.00,Wunderground v.1.15,2013-09-10 08:36:00,
2013-09-10 04:37:00,55.6,53.3,30.06,West,278,0.0,2.0,92,0.00,,,0.00,Wunderground v.1.15,2013-09-10 08:37:00,
2013-09-10 04:38:00,55.7,53.4,30.06,West,278,0.0,2.0,92,0.00,,,0.00,Wunderground v.1.15,2013-09-10 08:38:00,
2013-09-10 04:39:00,55.7,53.4,30.06,West,278,0.0,2.0,92,0.00,,,0.00,Wunderground v.1.15,2013-09-10 08:39:00,
2013-09-10 04:40:00,55.7,53.4,30.06,West,278,0.0,0.0,92,0.00,,,0.00,Wunderground v.1.15,2013-09-10 08:40:00,
2013-09-10 04:41:00,55.7,53.4,30.06,West,278,0.0,0.0,92,0.00,,,0.00,Wunderground v.1.15,2013-09-10 08:41:00,
2013-09-10 04:42:00,55.7,53.4,30.06,West,279,0.0,0.0,92,0.00,,,0.00,Wunderground v.1.15,2013-09-10 08:42:00,
2013-09-10 04:43:00,55.7,53.4,30.06,West,278,0.0,0.0,92,0.00,,,0.00,Wunderground v.1.15,2013-09-10 08:43:00,
2013-09-10 04:44:00,55.8,53.5,30.06,West,279,0.0,0.0,92,0.00,,,0.00,Wunderground v.1.15,2013-09-10 08:44:00,
2013-09-10 04:45:00,55.8,53.5,30.06,West,279,0.0,0.0,92,0.00,,,0.00,Wunderground v.1.15,2013-09-10 08:45:00,
2013-09-10 04:46:00,55.8,53.8,30.06,West,278,0.0,0.0,93,0.00,,,0.00,Wunderground v.1.15,2013-09-10 08:46:00,
2013-09-10 04:47:00,55.8,53.8,30.06,West,278,0.0,0.0,93,0.00,,,0.00,Wunderground v.1.15,2013-09-10 08:47:00,
2013-09-10 04:48:00,55.8,53.8,30.06,West,278,0.0,0.0,93,0.00,,,0.00,Wunderground v.1.15,2013-09-10 08:48:00,
2013-09-10 04:49:00,55.8,53.8,30.06,West,278,0.0,0.0,93,0.00,,,0.00,Wunderground v.1.15,2013-09-10 08:49:00,
2013-09-10 04:50:00,55.8,53.8,30.06,West,279,1.0,1.0,93,0.00,,,0.00,Wunderground v.1.15,2013-09-10 08:50:00,
2013-09-10 04:51:00,55.9,53.9,30.06,West,279,0.0,1.0,93,0.00,,,0.00,Wunderground v.1.15,2013-09-10 08:51:00,
2013-09-10 04:52:00,55.9,53.9,30.06,West,278,0.0,1.0,93,0.00,,,0.00,Wunderground v.1.15,2013-09-10 08:52:00,
2013-09-10 04:53:00,55.9,53.9,30.06,West,278,0.0,1.0,93,0.00,,,0.00,Wunderground v.1.15,2013-09-10 08:53:00,
2013-09-10 04:54:00,55.9,53.9,30.06,West,278,0.0,1.0,93,0.00,,,0.00,Wunderground v.1.15,2013-09-10 08:54:00,
2013-09-10 04:55:00,56.0,54.0,30.06,West,278,0.0,1.0,93,0.00,,,0.00,Wunderground v.1.15,2013-09-10 08:55:00,
2013-09-10 04:57:00,56.0,54.0,30.06,West,278,0.0,1.0,93,0.00,,,0.00,Wunderground v.1.15,2013-09-10 08:57:00,
2013-09-10 04:58:00,56.0,54.0,30.06,West,278,0.0,1.0,93,0.00,,,0.00,Wunderground v.1.15,2013-09-10 08:58:00,
2013-09-10 04:59:00,56.1,54.1,30.06,West,278,0.0,1.0,93,0.00,,,0.00,Wunderground v.1.15,2013-09-10 08:59:00,
2013-09-10 05:00:00,56.1,54.1,30.06,West,278,0.0,0.0,93,0.00,,,0.00,Wunderground v.1.15,2013-09-10 09:00:00,
2013-09-10 05:02:00,56.2,54.2,30.06,West,278,0.0,0.0,93,0.00,,,0.00,Wunderground v.1.15,2013-09-10 09:02:00,
2013-09-10 05:03:00,56.2,54.2,30.06,West,278,0.0,0.0,93,0.00,,,0.00,Wunderground v.1.15,2013-09-10 09:03:00,
2013-09-10 05:05:00,56.3,54.3,30.06,West,279,0.0,0.0,93,0.00,,,0.00,Wunderground v.1.15,2013-09-10 09:05:00,
2013-09-10 05:07:00,56.3,54.3,30.06,West,278,0.0,0.0,93,0.00,,,0.00,Wunderground v.1.15,2013-09-10 09:07:00,
2013-09-10 05:08:00,56.4,54.4,30.06,West,278,0.0,0.0,93,0.00,,,0.00,Wunderground v.1.15,2013-09-10 09:08:00,
2013-09-10 05:09:00,56.4,54.4,30.06,West,279,0.0,0.0,93,0.00,,,0.00,Wunderground v.1.15,2013-09-10 09:09:00,
2013-09-10 05:10:00,56.4,54.4,30.06,West,278,0.0,0.0,93,0.00,,,0.00,Wunderground v.1.15,2013-09-10 09:10:00,
2013-09-10 05:13:00,56.5,54.5,30.06,West,278,0.0,0.0,93,0.00,,,0.00,Wunderground v.1.15,2013-09-10 09:13:00,
2013-09-10 05:14:00,56.5,54.5,30.06,West,278,0.0,0.0,93,0.00,,,0.00,Wunderground v.1.15,2013-09-10 09:14:00,
2013-09-10 05:15:00,56.6,54.6,30.06,West,278,0.0,3.0,93,0.00,,,0.00,Wunderground v.1.15,2013-09-10 09:15:00,
2013-09-10 05:19:00,56.7,54.7,30.07,WNW,286,0.0,3.0,93,0.00,,,0.00,Wunderground v.1.15,2013-09-10 09:19:00,
2013-09-10 05:20:00,56.7,54.7,30.07,WNW,286,0.0,3.0,93,0.00,,,0.00,Wunderground v.1.15,2013-09-10 09:20:00,
2013-09-10 05:21:00,56.8,54.8,30.07,WNW,284,0.0,1.0,93,0.00,,,0.00,Wunderground v.1.15,2013-09-10 09:21:00,
2013-09-10 05:24:00,56.8,54.8,30.07,WNW,284,0.0,1.0,93,0.00,,,0.00,Wunderground v.1.15,2013-09-10 09:24:00,
2013-09-10 05:25:00,56.8,54.5,30.07,SSW,213,0.0,2.0,92,0.00,,,0.00,Wunderground v.1.15,2013-09-10 09:25:00,
2013-09-10 05:26:00,56.8,54.5,30.07,SSW,213,0.0,2.0,92,0.00,,,0.00,Wunderground v.1.15,2013-09-10 09:26:00,
2013-09-10 05:29:00,56.9,54.9,30.07,SSW,192,0.0,2.0,93,0.00,,,0.00,Wunderground v.1.15,2013-09-10 09:29:00,
2013-09-10 05:30:00,57.0,55.0,30.07,SSW,192,0.0,0.0,93,0.00,,,0.00,Wunderground v.1.15,2013-09-10 09:30:00,
2013-09-10 05:31:00,57.0,55.0,30.06,SSW,192,1.0,1.0,93,0.00,,,0.00,Wunderground v.1.15,2013-09-10 09:31:00,
2013-09-10 05:32:00,57.1,55.1,30.06,SSW,192,0.0,2.0,93,0.00,,,0.00,Wunderground v.1.15,2013-09-10 09:32:00,
2013-09-10 05:34:00,57.1,55.1,30.06,SSW,192,0.0,2.0,93,0.00,,,0.00,Wunderground v.1.15,2013-09-10 09:34:00,
2013-09-10 05:36:00,57.2,55.2,30.06,South,191,0.0,2.0,93,0.00,,,0.00,Wunderground v.1.15,2013-09-10 09:36:00,
2013-09-10 05:37:00,57.2,55.2,30.06,South,191,0.0,2.0,93,0.00,,,0.00,Wunderground v.1.15,2013-09-10 09:37:00,
2013-09-10 05:39:00,57.3,55.0,30.06,South,191,0.0,2.0,92,0.00,,,0.00,Wunderground v.1.15,2013-09-10 09:39:00,
2013-09-10 05:41:00,57.4,55.1,30.06,ENE,69,0.0,3.0,92,0.00,,,0.00,Wunderground v.1.15,2013-09-10 09:41:00,
2013-09-10 05:42:00,57.4,55.1,30.06,NNW,345,0.0,3.0,92,0.00,,,0.00,Wunderground v.1.15,2013-09-10 09:42:00,
2013-09-10 05:44:00,57.4,55.1,30.06,North,360,0.0,3.0,92,0.00,,,0.00,Wunderground v.1.15,2013-09-10 09:44:00,
2013-09-10 05:45:00,57.4,55.1,30.06,North,360,0.0,3.0,92,0.00,,,0.00,Wunderground v.1.15,2013-09-10 09:45:00,
2013-09-10 05:47:00,57.4,55.1,30.06,NW,308,0.0,3.0,92,0.00,,,0.00,Wunderground v.1.15,2013-09-10 09:47:00,
2013-09-10 05:48:00,57.5,55.2,30.06,NW,308,0.0,3.0,92,0.00,,,0.00,Wunderground v.1.15,2013-09-10 09:48:00,
2013-09-10 05:49:00,57.5,55.2,30.06,NW,308,0.0,3.0,92,0.00,,,0.00,Wunderground v.1.15,2013-09-10 09:49:00,
2013-09-10 05:50:00,57.5,55.2,30.06,NW,308,0.0,0.0,92,0.00,,,0.00,Wunderground v.1.15,2013-09-10 09:50:00,
2013-09-10 05:51:00,57.5,55.2,30.06,NW,311,0.0,0.0,92,0.00,,,0.00,Wunderground v.1.15,2013-09-10 09:51:00,
2013-09-10 05:52:00,57.6,55.3,30.06,NW,311,0.0,1.0,92,0.00,,,0.00,Wunderground v.1.15,2013-09-10 09:52:00,
2013-09-10 05:53:00,57.6,55.3,30.06,NW,311,0.0,1.0,92,0.00,,,0.00,Wunderground v.1.15,2013-09-10 09:53:00,
2013-09-10 05:54:00,57.6,55.3,30.06,NW,311,0.0,1.0,92,0.00,,,0.00,Wunderground v.1.15,2013-09-10 09:54:00,
2013-09-10 05:55:00,57.7,55.4,30.05,NW,311,0.0,1.0,92,0.00,,,0.00,Wunderground v.1.15,2013-09-10 09:55:00,
2013-09-10 05:56:00,57.7,55.4,30.06,NW,311,0.0,1.0,92,0.00,,,0.00,Wunderground v.1.15,2013-09-10 09:56:00,
2013-09-10 05:57:00,57.7,55.4,30.05,NW,311,0.0,1.0,92,0.00,,,0.00,Wunderground v.1.15,2013-09-10 09:57:00,
2013-09-10 05:58:00,57.7,55.4,30.05,NW,311,0.0,1.0,92,0.00,,,0.00,Wunderground v.1.15,2013-09-10 09:58:00,
2013-09-10 06:01:00,57.7,55.4,30.05,NW,311,0.0,0.0,92,0.00,,,0.00,Wunderground v.1.15,2013-09-10 10:01:00,
2013-09-10 06:02:00,57.7,55.4,30.05,NW,311,0.0,0.0,92,0.00,,,0.00,Wunderground v.1.15,2013-09-10 10:02:00,
2013-09-10 06:03:00,57.6,55.3,30.05,NW,311,0.0,0.0,92,0.00,,,0.00,Wunderground v.1.15,2013-09-10 10:03:00,
2013-09-10 06:06:00,57.6,55.3,30.06,NW,311,0.0,0.0,92,0.00,,,0.00,Wunderground v.1.15,2013-09-10 10:06:00,
2013-09-10 06:07:00,57.6,55.3,30.06,NW,311,0.0,0.0,92,0.00,,,0.00,Wunderground v.1.15,2013-09-10 10:07:00,
2013-09-10 06:08:00,57.6,55.3,30.06,NW,311,0.0,0.0,92,0.00,,,0.00,Wunderground v.1.15,2013-09-10 10:08:00,
2013-09-10 06:11:00,57.5,55.2,30.06,NW,311,0.0,0.0,92,0.00,,,0.00,Wunderground v.1.15,2013-09-10 10:11:00,
2013-09-10 06:12:00,57.5,55.2,30.06,NW,311,0.0,0.0,92,0.00,,,0.00,Wunderground v.1.15,2013-09-10 10:12:00,
2013-09-10 06:13:00,57.5,55.2,30.06,NW,311,0.0,0.0,92,0.00,,,0.00,Wunderground v.1.15,2013-09-10 10:13:00,
2013-09-10 06:16:00,57.5,55.2,30.05,NW,311,0.0,1.0,92,0.00,,,0.00,Wunderground v.1.15,2013-09-10 10:16:00,
2013-09-10 06:18:00,57.5,55.2,30.06,NW,311,0.0,1.0,92,0.00,,,0.00,Wunderground v.1.15,2013-09-10 10:18:00,
2013-09-10 06:19:00,57.5,55.2,30.06,NW,311,0.0,1.0,92,0.00,,,0.00,Wunderground v.1.15,2013-09-10 10:19:00,
2013-09-10 06:21:00,57.5,55.2,30.06,NW,311,0.0,0.0,92,0.00,,,0.00,Wunderground v.1.15,2013-09-10 10:21:00,
2013-09-10 06:23:00,57.4,55.4,30.06,NW,311,0.0,0.0,93,0.00,,,0.00,Wunderground v.1.15,2013-09-10 10:23:00,
2013-09-10 06:24:00,57.4,55.1,30.06,NW,311,0.0,0.0,92,0.00,,,0.00,Wunderground v.1.15,2013-09-10 10:24:00,
2013-09-10 06:26:00,57.4,55.4,30.05,NW,311,0.0,0.0,93,0.00,,,0.00,Wunderground v.1.15,2013-09-10 10:26:00,
2013-09-10 06:27:00,57.4,55.1,30.05,NW,311,0.0,0.0,92,0.00,,,0.00,Wunderground v.1.15,2013-09-10 10:27:00,
2013-09-10 06:28:00,57.4,55.1,30.05,NW,311,0.0,0.0,92,0.00,,,0.00,Wunderground v.1.15,2013-09-10 10:28:00,
2013-09-10 06:29:00,57.4,55.1,30.05,NW,311,0.0,0.0,92,0.00,,,0.00,Wunderground v.1.15,2013-09-10 10:29:00,
2013-09-10 06:32:00,57.3,55.3,30.05,WNW,296,0.0,1.0,93,0.00,,,0.00,Wunderground v.1.15,2013-09-10 10:32:00,
2013-09-10 06:33:00,57.3,55.3,30.05,WNW,296,0.0,1.0,93,0.00,,,0.00,Wunderground v.1.15,2013-09-10 10:33:00,
2013-09-10 06:34:00,57.3,55.3,30.05,WNW,296,0.0,1.0,93,0.00,,,0.00,Wunderground v.1.15,2013-09-10 10:34:00,
2013-09-10 06:35:00,57.3,55.3,30.05,WNW,296,0.0,1.0,93,0.00,,,0.00,Wunderground v.1.15,2013-09-10 10:35:00,
2013-09-10 06:37:00,57.3,55.3,30.05,SSW,209,1.0,3.0,93,0.00,,,0.00,Wunderground v.1.15,2013-09-10 10:37:00,
2013-09-10 06:38:00,57.2,55.2,30.05,SW,214,1.0,4.0,93,0.00,,,0.00,Wunderground v.1.15,2013-09-10 10:38:00,
2013-09-10 06:39:00,57.2,55.2,30.05,SSW,198,0.0,4.0,93,0.00,,,0.00,Wunderground v.1.15,2013-09-10 10:39:00,
2013-09-10 06:40:00,57.2,55.2,30.05,SSW,198,0.0,0.0,93,0.00,,,0.00,Wunderground v.1.15,2013-09-10 10:40:00,
2013-09-10 06:41:00,57.2,55.2,30.05,WSW,240,0.0,2.0,93,0.00,,,0.00,Wunderground v.1.15,2013-09-10 10:41:00,
2013-09-10 06:42:00,57.2,55.2,30.05,SSW,192,0.0,3.0,93,0.00,,,0.00,Wunderground v.1.15,2013-09-10 10:42:00,
2013-09-10 06:44:00,57.2,55.2,30.05,South,187,0.0,3.0,93,0.00,,,0.00,Wunderground v.1.15,2013-09-10 10:44:00,
2013-09-10 06:46:00,57.3,55.6,30.05,SSW,194,0.0,3.0,94,0.00,,,0.00,Wunderground v.1.15,2013-09-10 10:46:00,
2013-09-10 06:47:00,57.3,55.6,30.05,SSW,194,0.0,3.0,94,0.00,,,0.00,Wunderground v.1.15,2013-09-10 10:47:00,
2013-09-10 06:49:00,57.3,55.6,30.05,West,278,0.0,3.0,94,0.00,,,0.00,Wunderground v.1.15,2013-09-10 10:49:00,
2013-09-10 06:50:00,57.3,55.6,30.05,SSW,207,0.0,0.0,94,0.00,,,0.00,Wunderground v.1.15,2013-09-10 10:50:00,
2013-09-10 06:52:00,57.4,55.7,30.05,SSW,207,0.0,0.0,94,0.00,,,0.00,Wunderground v.1.15,2013-09-10 10:52:00,
2013-09-10 06:53:00,57.4,55.7,30.05,SSW,207,0.0,1.0,94,0.00,,,0.00,Wunderground v.1.15,2013-09-10 10:53:00,
2013-09-10 06:54:00,57.4,55.7,30.05,SW,214,1.0,3.0,94,0.00,,,0.00,Wunderground v.1.15,2013-09-10 10:54:00,
2013-09-10 06:55:00,57.4,55.7,30.05,SSW,210,0.0,3.0,94,0.00,,,0.00,Wunderground v.1.15,2013-09-10 10:55:00,
2013-09-10 06:57:00,57.5,55.8,30.05,SSW,210,0.0,3.0,94,0.00,,,0.00,Wunderground v.1.15,2013-09-10 10:57:00,
2013-09-10 06:58:00,57.5,55.8,30.05,WSW,255,0.0,3.0,94,0.00,,,0.00,Wunderground v.1.15,2013-09-10 10:58:00,
2013-09-10 06:59:00,57.5,55.5,30.06,WSW,255,0.0,3.0,93,0.00,,,0.00,Wunderground v.1.15,2013-09-10 10:59:00,
2013-09-10 07:00:00,57.5,55.5,30.06,WSW,255,0.0,0.0,93,0.00,,,0.00,Wunderground v.1.15,2013-09-10 11:00:00,
2013-09-10 07:02:00,57.4,55.4,30.06,WSW,255,0.0,0.0,93,0.00,,,0.00,Wunderground v.1.15,2013-09-10 11:02:00,
2013-09-10 07:04:00,57.4,55.4,30.06,WSW,255,0.0,0.0,93,0.00,,,0.00,Wunderground v.1.15,2013-09-10 11:04:00,
2013-09-10 07:05:00,57.4,55.4,30.06,WSW,255,0.0,0.0,93,0.00,,,0.00,Wunderground v.1.15,2013-09-10 11:05:00,
2013-09-10 07:07:00,57.3,55.3,30.06,WSW,255,0.0,0.0,93,0.00,,,0.00,Wunderground v.1.15,2013-09-10 11:07:00,
2013-09-10 07:09:00,57.2,55.2,30.06,WSW,255,0.0,0.0,93,0.00,,,0.00,Wunderground v.1.15,2013-09-10 11:09:00,
2013-09-10 07:10:00,57.2,55.2,30.05,WSW,255,0.0,0.0,93,0.00,,,0.00,Wunderground v.1.15,2013-09-10 11:10:00,
2013-09-10 07:11:00,57.2,55.2,30.05,WSW,255,0.0,0.0,93,0.00,,,0.00,Wunderground v.1.15,2013-09-10 11:11:00,
2013-09-10 07:12:00,57.1,55.1,30.05,WSW,255,0.0,0.0,93,0.00,,,0.00,Wunderground v.1.15,2013-09-10 11:12:00,
2013-09-10 07:15:00,57.1,55.1,30.05,WSW,255,0.0,1.0,93,0.00,,,0.00,Wunderground v.1.15,2013-09-10 11:15:00,
2013-09-10 07:16:00,57.1,55.1,30.05,WSW,255,2.0,2.0,93,0.00,,,0.00,Wunderground v.1.15,2013-09-10 11:16:00,
2013-09-10 07:18:00,57.1,55.4,30.05,WSW,255,0.0,2.0,94,0.00,,,0.00,Wunderground v.1.15,2013-09-10 11:18:00,
2013-09-10 07:21:00,57.1,55.4,30.04,South,178,2.0,2.0,94,0.00,,,0.00,Wunderground v.1.15,2013-09-10 11:21:00,
2013-09-10 07:23:00,57.2,55.5,30.04,WSW,257,0.0,2.0,94,0.00,,,0.00,Wunderground v.1.15,2013-09-10 11:23:00,
2013-09-10 07:25:00,57.2,55.5,30.04,West,263,0.0,3.0,94,0.00,,,0.00,Wunderground v.1.15,2013-09-10 11:25:00,
2013-09-10 07:26:00,57.3,55.6,30.04,West,263,0.0,3.0,94,0.00,,,0.00,Wunderground v.1.15,2013-09-10 11:26:00,
2013-09-10 07:28:00,57.3,55.9,30.04,SSW,201,0.0,3.0,95,0.00,,,0.00,Wunderground v.1.15,2013-09-10 11:28:00,
2013-09-10 07:29:00,57.4,56.0,30.04,SSW,201,0.0,3.0,95,0.00,,,0.00,Wunderground v.1.15,2013-09-10 11:29:00,
2013-09-10 07:30:00,57.4,56.0,30.04,SSW,201,0.0,0.0,95,0.00,,,0.00,Wunderground v.1.15,2013-09-10 11:30:00,
2013-09-10 07:31:00,57.5,56.1,30.04,SW,223,1.0,1.0,95,0.00,,,0.00,Wunderground v.1.15,2013-09-10 11:31:00,
2013-09-10 07:33:00,57.5,56.1,30.04,WSW,252,0.0,2.0,95,0.00,,,0.00,Wunderground v.1.15,2013-09-10 11:33:00,
2013-09-10 07:35:00,57.7,56.3,30.04,WSW,247,0.0,2.0,95,0.00,,,0.00,Wunderground v.1.15,2013-09-10 11:35:00,
2013-09-10 07:36:00,57.7,56.3,30.04,WSW,247,0.0,2.0,95,0.00,,,0.00,Wunderground v.1.15,2013-09-10 11:36:00,
2013-09-10 07:38:00,57.8,56.4,30.05,WNW,301,0.0,3.0,95,0.00,,,0.00,Wunderground v.1.15,2013-09-10 11:38:00,
2013-09-10 07:40:00,57.9,56.5,30.04,WNW,301,0.0,0.0,95,0.00,,,0.00,Wunderground v.1.15,2013-09-10 11:40:00,
2013-09-10 07:41:00,57.9,56.2,30.04,WNW,301,0.0,0.0,94,0.00,,,0.00,Wunderground v.1.15,2013-09-10 11:41:00,
2013-09-10 07:42:00,57.8,56.1,30.04,WNW,301,0.0,0.0,94,0.00,,,0.00,Wunderground v.1.15,2013-09-10 11:42:00,
2013-09-10 07:43:00,57.9,56.2,30.04,WNW,301,0.0,1.0,94,0.00,,,0.00,Wunderground v.1.15,2013-09-10 11:43:00,
2013-09-10 07:45:00,57.9,56.5,30.04,WNW,301,0.0,1.0,95,0.00,,,0.00,Wunderground v.1.15,2013-09-10 11:45:00,
2013-09-10 07:46:00,57.9,56.5,30.03,WNW,301,0.0,3.0,95,0.00,,,0.00,Wunderground v.1.15,2013-09-10 11:46:00,
2013-09-10 07:47:00,57.9,56.5,30.04,WNW,301,0.0,3.0,95,0.00,,,0.00,Wunderground v.1.15,2013-09-10 11:47:00,
2013-09-10 07:48:00,58.0,56.6,30.04,SSW,201,0.0,3.0,95,0.00,,,0.00,Wunderground v.1.15,2013-09-10 11:48:00,
2013-09-10 07:50:00,58.0,56.6,30.04,ESE,109,0.0,1.0,95,0.00,,,0.00,Wunderground v.1.15,2013-09-10 11:50:00,
2013-09-10 07:51:00,58.0,56.6,30.04,ESE,109,0.0,1.0,95,0.00,,,0.00,Wunderground v.1.15,2013-09-10 11:51:00,
2013-09-10 07:52:00,58.1,56.7,30.04,ESE,109,0.0,1.0,95,0.00,,,0.00,Wunderground v.1.15,2013-09-10 11:52:00,
2013-09-10 07:53:00,58.1,56.7,30.04,ESE,103,0.0,1.0,95,0.00,,,0.00,Wunderground v.1.15,2013-09-10 11:53:00,
2013-09-10 07:56:00,58.2,56.8,30.04,ESE,103,0.0,1.0,95,0.00,,,0.00,Wunderground v.1.15,2013-09-10 11:56:00,
2013-09-10 07:57:00,58.2,56.8,30.04,SSW,196,1.0,1.0,95,0.00,,,0.00,Wunderground v.1.15,2013-09-10 11:57:00,
2013-09-10 07:58:00,58.3,56.9,30.04,ENE,71,0.0,1.0,95,0.00,,,0.00,Wunderground v.1.15,2013-09-10 11:58:00,
2013-09-10 07:59:00,58.3,56.9,30.03,East,92,1.0,1.0,95,0.00,,,0.00,Wunderground v.1.15,2013-09-10 11:59:00,
2013-09-10 08:01:00,58.5,57.1,30.04,SW,224,0.0,3.0,95,0.00,,,0.00,Wunderground v.1.15,2013-09-10 12:01:00,
2013-09-10 08:02:00,58.5,57.1,30.04,SW,224,0.0,3.0,95,0.00,,,0.00,Wunderground v.1.15,2013-09-10 12:02:00,
2013-09-10 08:03:00,58.5,57.1,30.04,NW,315,2.0,3.0,95,0.00,,,0.00,Wunderground v.1.15,2013-09-10 12:03:00,
2013-09-10 08:04:00,58.5,57.1,30.04,NW,315,0.0,3.0,95,0.00,,,0.00,Wunderground v.1.15,2013-09-10 12:04:00,
2013-09-10 08:07:00,58.6,56.9,30.05,SSE,163,0.0,3.0,94,0.00,,,0.00,Wunderground v.1.15,2013-09-10 12:07:00,
2013-09-10 08:09:00,58.5,56.8,30.04,SSE,163,0.0,3.0,94,0.00,,,0.00,Wunderground v.1.15,2013-09-10 12:09:00,
2013-09-10 08:10:00,58.5,56.8,30.05,SSE,163,0.0,0.0,94,0.00,,,0.00,Wunderground v.1.15,2013-09-10 12:10:00,
2013-09-10 08:12:00,58.4,56.7,30.05,SSE,163,0.0,1.0,94,0.00,,,0.00,Wunderground v.1.15,2013-09-10 12:12:00,
2013-09-10 08:13:00,58.4,56.7,30.05,SSE,163,0.0,1.0,94,0.00,,,0.00,Wunderground v.1.15,2013-09-10 12:13:00,
2013-09-10 08:14:00,58.4,56.7,30.05,SSE,163,0.0,1.0,94,0.00,,,0.00,Wunderground v.1.15,2013-09-10 12:14:00,
2013-09-10 08:16:00,58.3,56.6,30.04,SSE,163,0.0,1.0,94,0.00,,,0.00,Wunderground v.1.15,2013-09-10 12:16:00,
2013-09-10 08:18:00,58.2,56.5,30.04,SSE,163,0.0,1.0,94,0.00,,,0.00,Wunderground v.1.15,2013-09-10 12:18:00,
2013-09-10 08:19:00,58.2,56.5,30.04,SSE,163,0.0,1.0,94,0.00,,,0.00,Wunderground v.1.15,2013-09-10 12:19:00,
2013-09-10 08:21:00,58.2,56.5,30.04,SSE,163,0.0,0.0,94,0.00,,,0.00,Wunderground v.1.15,2013-09-10 12:21:00,
2013-09-10 08:23:00,58.2,56.5,30.04,East,90,0.0,4.0,94,0.00,,,0.00,Wunderground v.1.15,2013-09-10 12:23:00,
2013-09-10 08:24:00,58.2,56.8,30.04,WSW,238,2.0,4.0,95,0.00,,,0.00,Wunderground v.1.15,2013-09-10 12:24:00,
2013-09-10 08:26:00,58.2,56.5,30.04,SW,227,0.0,4.0,94,0.00,,,0.00,Wunderground v.1.15,2013-09-10 12:26:00,
2013-09-10 08:28:00,58.1,56.4,30.04,SW,227,0.0,4.0,94,0.00,,,0.00,Wunderground v.1.15,2013-09-10 12:28:00,
2013-09-10 08:29:00,58.0,56.3,30.05,SW,227,0.0,4.0,94,0.00,,,0.00,Wunderground v.1.15,2013-09-10 12:29:00,
2013-09-10 08:30:00,58.0,56.3,30.05,SW,227,0.0,0.0,94,0.00,,,0.00,Wunderground v.1.15,2013-09-10 12:30:00,
2013-09-10 08:32:00,58.0,56.3,30.04,SW,227,0.0,0.0,94,0.00,,,0.00,Wunderground v.1.15,2013-09-10 12:32:00,
2013-09-10 08:33:00,57.9,56.2,30.05,SW,227,0.0,0.0,94,0.00,,,0.00,Wunderground v.1.15,2013-09-10 12:33:00,
2013-09-10 08:34:00,57.9,56.2,30.04,SW,227,0.0,1.0,94,0.00,,,0.00,Wunderground v.1.15,2013-09-10 12:34:00,
2013-09-10 08:35:00,57.9,56.2,30.04,SW,227,0.0,1.0,94,0.00,,,0.00,Wunderground v.1.15,2013-09-10 12:35:00,
2013-09-10 08:37:00,57.9,56.2,30.04,SW,227,0.0,1.0,94,0.00,,,0.00,Wunderground v.1.15,2013-09-10 12:37:00,
2013-09-10 08:38:00,57.9,56.5,30.04,SSE,158,2.0,4.0,95,0.00,,,0.00,Wunderground v.1.15,2013-09-10 12:38:00,
2013-09-10 08:39:00,57.9,56.5,30.04,South,188,0.0,4.0,95,0.00,,,0.00,Wunderground v.1.15,2013-09-10 12:39:00,
2013-09-10 08:40:00,58.0,56.6,30.04,WSW,252,2.0,3.0,95,0.00,,,0.00,Wunderground v.1.15,2013-09-10 12:40:00,
2013-09-10 08:43:00,58.1,56.7,30.04,WSW,254,0.0,3.0,95,0.00,,,0.00,Wunderground v.1.15,2013-09-10 12:43:00,
2013-09-10 08:45:00,58.1,56.7,30.04,WSW,254,0.0,3.0,95,0.00,,,0.00,Wunderground v.1.15,2013-09-10 12:45:00,
2013-09-10 08:48:00,58.0,56.3,30.04,WSW,254,0.0,3.0,94,0.00,,,0.00,Wunderground v.1.15,2013-09-10 12:48:00,
2013-09-10 08:50:00,58.1,56.7,30.03,North,360,0.0,0.0,95,0.00,,,0.00,Wunderground v.1.15,2013-09-10 12:50:00,
2013-09-10 08:54:00,58.2,56.8,30.03,NE,38,0.0,5.0,95,0.00,,,0.00,Wunderground v.1.15,2013-09-10 12:54:00,
2013-09-10 08:55:00,58.2,56.8,30.03,NE,38,0.0,5.0,95,0.00,,,0.00,Wunderground v.1.15,2013-09-10 12:55:00,
2013-09-10 08:56:00,58.3,56.9,30.03,NE,38,0.0,5.0,95,0.00,,,0.00,Wunderground v.1.15,2013-09-10 12:56:00,
2013-09-10 09:00:00,58.5,57.1,30.03,SE,125,0.0,1.0,95,0.00,,,0.00,Wunderground v.1.15,2013-09-10 13:00:00,
2013-09-10 09:01:00,58.5,57.1,30.03,SE,125,0.0,1.0,95,0.00,,,0.00,Wunderground v.1.15,2013-09-10 13:01:00,
2013-09-10 09:05:00,58.7,57.6,30.03,SSW,206,1.0,4.0,96,0.00,,,0.00,Wunderground v.1.15,2013-09-10 13:05:00,
2013-09-10 09:06:00,58.8,57.7,30.03,SSW,206,0.0,4.0,96,0.00,,,0.00,Wunderground v.1.15,2013-09-10 13:06:00,
2013-09-10 09:07:00,58.9,57.8,30.03,WSW,250,5.0,6.0,96,0.00,,,0.00,Wunderground v.1.15,2013-09-10 13:07:00,
2013-09-10 09:10:00,59.1,58.0,30.03,North,10,0.0,1.0,96,0.00,,,0.00,Wunderground v.1.15,2013-09-10 13:10:00,
2013-09-10 09:11:00,59.1,58.0,30.03,WSW,238,5.0,5.0,96,0.00,,,0.00,Wunderground v.1.15,2013-09-10 13:11:00,
2013-09-10 09:13:00,59.2,57.8,30.03,SW,224,2.0,5.0,95,0.00,,,0.00,Wunderground v.1.15,2013-09-10 13:13:00,
2013-09-10 09:14:00,59.2,57.8,30.03,West,275,0.0,5.0,95,0.00,,,0.00,Wunderground v.1.15,2013-09-10 13:14:00,
2013-09-10 09:15:00,59.2,57.8,30.03,West,275,0.0,5.0,95,0.00,,,0.00,Wunderground v.1.15,2013-09-10 13:15:00,
2013-09-10 09:16:00,59.2,57.8,30.03,West,275,0.0,5.0,95,0.00,,,0.00,Wunderground v.1.15,2013-09-10 13:16:00,
2013-09-10 09:18:00,59.2,57.8,30.03,West,275,0.0,5.0,95,0.00,,,0.00,Wunderground v.1.15,2013-09-10 13:18:00,
2013-09-10 09:21:00,59.1,57.7,30.03,South,185,1.0,2.0,95,0.00,,,0.00,Wunderground v.1.15,2013-09-10 13:21:00,
2013-09-10 09:23:00,59.2,57.8,30.03,SSE,152,1.0,2.0,95,0.00,,,0.00,Wunderground v.1.15,2013-09-10 13:23:00,
2013-09-10 09:26:00,59.3,58.2,30.03,South,180,1.0,5.0,96,0.00,,,0.00,Wunderground v.1.15,2013-09-10 13:26:00,
2013-09-10 09:27:00,59.4,58.3,30.03,South,180,0.0,5.0,96,0.00,,,0.00,Wunderground v.1.15,2013-09-10 13:27:00,
2013-09-10 09:29:00,59.4,58.0,30.03,SSW,194,0.0,5.0,95,0.00,,,0.00,Wunderground v.1.15,2013-09-10 13:29:00,
2013-09-10 09:31:00,59.5,58.1,30.03,NNE,27,0.0,3.0,95,0.00,,,0.00,Wunderground v.1.15,2013-09-10 13:31:00,
2013-09-10 09:32:00,59.5,58.1,30.03,West,269,2.0,3.0,95,0.00,,,0.00,Wunderground v.1.15,2013-09-10 13:32:00,
2013-09-10 09:34:00,59.4,58.0,30.03,SE,141,0.0,5.0,95,0.00,,,0.00,Wunderground v.1.15,2013-09-10 13:34:00,
2013-09-10 09:36:00,59.4,58.0,30.03,SSW,204,0.0,5.0,95,0.00,,,0.00,Wunderground v.1.15,2013-09-10 13:36:00,
2013-09-10 09:37:00,59.4,58.0,30.03,South,187,1.0,5.0,95,0.00,,,0.00,Wunderground v.1.15,2013-09-10 13:37:00,
2013-09-10 09:39:00,59.2,57.8,30.03,SW,225,0.0,5.0,95,0.00,,,0.00,Wunderground v.1.15,2013-09-10 13:39:00,
2013-09-10 09:41:00,59.1,57.7,30.04,West,265,0.0,3.0,95,0.00,,,0.00,Wunderground v.1.15,2013-09-10 13:41:00,
2013-09-10 09:42:00,59.0,57.6,30.04,West,265,0.0,3.0,95,0.00,,,0.00,Wunderground v.1.15,2013-09-10 13:42:00,
2013-09-10 09:44:00,58.9,57.5,30.04,West,265,0.0,3.0,95,0.00,,,0.01,Wunderground v.1.15,2013-09-10 13:44:00,
2013-09-10 09:47:00,58.7,57.3,30.04,West,265,0.0,3.0,95,0.00,,,0.01,Wunderground v.1.15,2013-09-10 13:47:00,
2013-09-10 09:48:00,58.6,57.2,30.03,West,265,0.0,3.0,95,0.00,,,0.01,Wunderground v.1.15,2013-09-10 13:48:00,
2013-09-10 09:49:00,58.4,57.0,30.03,West,265,0.0,3.0,95,0.00,,,0.01,Wunderground v.1.15,2013-09-10 13:49:00,
2013-09-10 09:50:00,58.4,57.0,30.03,West,265,0.0,3.0,95,0.00,,,0.01,Wunderground v.1.15,2013-09-10 13:50:00,
2013-09-10 09:52:00,58.3,56.9,30.03,SW,231,3.0,6.0,95,0.00,,,0.01,Wunderground v.1.15,2013-09-10 13:52:00,
2013-09-10 09:54:00,58.4,57.3,30.03,SSE,159,4.0,6.0,96,0.00,,,0.01,Wunderground v.1.15,2013-09-10 13:54:00,
2013-09-10 09:55:00,58.4,57.3,30.03,SW,236,1.0,6.0,96,0.00,,,0.01,Wunderground v.1.15,2013-09-10 13:55:00,
2013-09-10 09:57:00,58.5,57.7,30.02,SSE,158,2.0,6.0,97,0.04,,,0.02,Wunderground v.1.15,2013-09-10 13:57:00,
2013-09-10 09:59:00,58.6,57.8,30.02,SSW,204,0.0,6.0,97,0.04,,,0.02,Wunderground v.1.15,2013-09-10 13:59:00,
2013-09-10 10:02:00,58.8,58.0,30.03,WSW,240,0.0,4.0,97,0.12,,,0.02,Wunderground v.1.15,2013-09-10 14:02:00,
2013-09-10 10:04:00,59.0,58.4,30.02,SSW,202,1.0,10.0,98,0.26,,,0.03,Wunderground v.1.15,2013-09-10 14:04:00,
2013-09-10 10:07:00,59.2,58.6,30.02,SW,227,0.0,10.0,98,0.38,,,0.05,Wunderground v.1.15,2013-09-10 14:07:00,
2013-09-10 10:08:00,59.2,58.6,30.01,SW,227,1.0,10.0,98,0.30,,,0.05,Wunderground v.1.15,2013-09-10 14:08:00,
2013-09-10 10:10:00,59.3,58.4,30.01,SSW,211,1.0,4.0,97,0.17,,,0.06,Wunderground v.1.15,2013-09-10 14:10:00,
2013-09-10 10:12:00,59.5,58.9,30.01,West,272,2.0,4.0,98,0.23,,,0.07,Wunderground v.1.15,2013-09-10 14:12:00,
2013-09-10 10:13:00,59.5,58.9,30.00,WSW,241,1.0,4.0,98,0.23,,,0.07,Wunderground v.1.15,2013-09-10 14:13:00,
2013-09-10 10:16:00,59.9,59.3,30.00,WNW,291,0.0,4.0,98,0.18,,,0.08,Wunderground v.1.15,2013-09-10 14:16:00,
2013-09-10 10:17:00,60.1,59.5,30.00,West,271,0.0,4.0,98,0.18,,,0.08,Wunderground v.1.15,2013-09-10 14:17:00,
2013-09-10 10:18:00,60.1,59.5,29.99,West,271,0.0,4.0,98,0.18,,,0.08,Wunderground v.1.15,2013-09-10 14:18:00,
2013-09-10 10:19:00,60.3,59.7,29.99,SW,229,1.0,4.0,98,0.16,,,0.09,Wunderground v.1.15,2013-09-10 14:19:00,
2013-09-10 10:21:00,60.5,59.9,29.99,West,265,0.0,5.0,98,0.16,,,0.09,Wunderground v.1.15,2013-09-10 14:21:00,
2013-09-10 10:23:00,60.7,60.1,30.00,South,175,0.0,5.0,98,0.16,,,0.09,Wunderground v.1.15,2013-09-10 14:23:00,
2013-09-10 10:25:00,60.9,60.3,30.00,NNE,24,0.0,5.0,98,0.11,,,0.09,Wunderground v.1.15,2013-09-10 14:25:00,
2013-09-10 10:26:00,61.0,60.4,30.00,SSW,203,0.0,5.0,98,0.11,,,0.10,Wunderground v.1.15,2013-09-10 14:26:00,
2013-09-10 10:28:00,61.0,60.4,29.99,WNW,284,0.0,5.0,98,0.11,,,0.10,Wunderground v.1.15,2013-09-10 14:28:00,
2013-09-10 10:30:00,60.9,60.3,29.99,SSE,165,1.0,5.0,98,0.13,,,0.11,Wunderground v.1.15,2013-09-10 14:30:00,
2013-09-10 10:31:00,60.8,60.2,29.99,South,175,2.0,4.0,98,0.13,,,0.11,Wunderground v.1.15,2013-09-10 14:31:00,
2013-09-10 10:33:00,60.9,60.3,29.99,SSW,205,2.0,6.0,98,0.15,,,0.11,Wunderground v.1.15,2013-09-10 14:33:00,
2013-09-10 10:34:00,60.9,60.3,30.00,SW,236,7.0,7.0,98,0.15,,,0.12,Wunderground v.1.15,2013-09-10 14:34:00,
2013-09-10 10:35:00,60.9,60.3,30.00,SW,234,6.0,8.0,98,0.15,,,0.12,Wunderground v.1.15,2013-09-10 14:35:00,
2013-09-10 10:37:00,60.9,60.3,30.00,South,178,5.0,8.0,98,0.15,,,0.12,Wunderground v.1.15,2013-09-10 14:37:00,
2013-09-10 10:38:00,60.9,60.3,30.00,SSW,203,4.0,8.0,98,0.12,,,0.12,Wunderground v.1.15,2013-09-10 14:38:00,
2013-09-10 10:39:00,60.9,60.3,30.00,South,173,4.0,8.0,98,0.11,,,0.12,Wunderground v.1.15,2013-09-10 14:39:00,
2013-09-10 10:42:00,60.8,60.2,30.00,SW,222,1.0,4.0,98,0.08,,,0.13,Wunderground v.1.15,2013-09-10 14:42:00,
2013-09-10 10:43:00,60.7,59.8,30.00,WNW,284,1.0,4.0,97,0.08,,,0.13,Wunderground v.1.15,2013-09-10 14:43:00,
2013-09-10 10:44:00,60.6,59.7,30.00,West,266,0.0,4.0,97,0.08,,,0.13,Wunderground v.1.15,2013-09-10 14:44:00,
2013-09-10 10:47:00,60.5,59.6,30.00,West,267,0.0,4.0,97,0.08,,,0.13,Wunderground v.1.15,2013-09-10 14:47:00,
2013-09-10 10:48:00,60.5,59.6,30.00,WSW,244,2.0,4.0,97,0.08,,,0.13,Wunderground v.1.15,2013-09-10 14:48:00,
2013-09-10 10:49:00,60.4,59.5,30.00,WSW,244,0.0,4.0,97,0.08,,,0.13,Wunderground v.1.15,2013-09-10 14:49:00,
2013-09-10 10:52:00,60.4,59.5,30.00,West,277,2.0,4.0,97,0.06,,,0.13,Wunderground v.1.15,2013-09-10 14:52:00,
2013-09-10 10:53:00,60.4,59.8,30.01,West,277,1.0,4.0,98,0.05,,,0.13,Wunderground v.1.15,2013-09-10 14:53:00,
2013-09-10 10:54:00,60.4,59.8,30.01,West,277,0.0,4.0,98,0.05,,,0.13,Wunderground v.1.15,2013-09-10 14:54:00,
2013-09-10 10:57:00,60.3,59.7,30.01,West,269,1.0,4.0,98,0.04,,,0.13,Wunderground v.1.15,2013-09-10 14:57:00,
2013-09-10 10:59:00,60.3,59.7,30.01,West,269,0.0,4.0,98,0.00,,,0.13,Wunderground v.1.15,2013-09-10 14:59:00,
2013-09-10 11:01:00,60.3,59.7,30.01,West,269,0.0,0.0,98,0.00,,,0.13,Wunderground v.1.15,2013-09-10 15:01:00,
2013-09-10 11:02:00,60.3,59.7,30.01,WSW,252,0.0,2.0,98,0.00,,,0.13,Wunderground v.1.15,2013-09-10 15:02:00,
2013-09-10 11:05:00,60.3,59.7,30.01,WSW,252,0.0,2.0,98,0.00,,,0.13,Wunderground v.1.15,2013-09-10 15:05:00,
2013-09-10 11:06:00,60.3,59.7,30.01,SW,215,0.0,3.0,98,0.00,,,0.13,Wunderground v.1.15,2013-09-10 15:06:00,
2013-09-10 11:07:00,60.3,59.7,30.01,WNW,285,0.0,3.0,98,0.00,,,0.13,Wunderground v.1.15,2013-09-10 15:07:00,
2013-09-10 11:10:00,60.4,59.8,30.01,WSW,252,6.0,6.0,98,0.00,,,0.13,Wunderground v.1.15,2013-09-10 15:10:00,
2013-09-10 11:11:00,60.4,59.8,30.01,SW,227,0.0,5.0,98,0.00,,,0.14,Wunderground v.1.15,2013-09-10 15:11:00,
2013-09-10 11:12:00,60.4,59.8,30.01,WSW,257,0.0,5.0,98,0.00,,,0.14,Wunderground v.1.15,2013-09-10 15:12:00,
2013-09-10 11:13:00,60.4,59.8,30.01,WSW,249,0.0,5.0,98,0.00,,,0.14,Wunderground v.1.15,2013-09-10 15:13:00,
2013-09-10 11:15:00,60.6,60.0,30.01,WSW,256,0.0,5.0,98,0.00,,,0.14,Wunderground v.1.15,2013-09-10 15:15:00,
2013-09-10 11:17:00,60.7,60.1,30.01,SW,231,0.0,5.0,98,0.00,,,0.14,Wunderground v.1.15,2013-09-10 15:17:00,
2013-09-10 11:18:00,60.7,60.1,30.01,SW,231,0.0,5.0,98,0.00,,,0.14,Wunderground v.1.15,2013-09-10 15:18:00,
2013-09-10 11:19:00,60.8,60.2,30.01,SW,231,0.0,5.0,98,0.00,,,0.14,Wunderground v.1.15,2013-09-10 15:19:00,
2013-09-10 11:20:00,60.8,60.2,30.01,SSW,193,0.0,1.0,98,0.00,,,0.14,Wunderground v.1.15,2013-09-10 15:20:00,
2013-09-10 11:21:00,60.8,60.2,30.01,South,189,0.0,1.0,98,0.00,,,0.14,Wunderground v.1.15,2013-09-10 15:21:00,
2013-09-10 11:22:00,61.0,60.4,30.01,West,260,3.0,6.0,98,0.00,,,0.14,Wunderground v.1.15,2013-09-10 15:22:00,
2013-09-10 11:23:00,61.1,60.5,30.01,SW,221,2.0,6.0,98,0.00,,,0.14,Wunderground v.1.15,2013-09-10 15:23:00,
2013-09-10 11:24:00,61.1,60.5,30.01,SW,221,1.0,6.0,98,0.00,,,0.14,Wunderground v.1.15,2013-09-10 15:24:00,
2013-09-10 11:25:00,61.1,60.5,30.01,WSW,246,0.0,6.0,98,0.00,,,0.14,Wunderground v.1.15,2013-09-10 15:25:00,
2013-09-10 11:26:00,61.2,60.6,30.01,West,278,3.0,6.0,98,0.00,,,0.14,Wunderground v.1.15,2013-09-10 15:26:00,
2013-09-10 11:29:00,61.4,60.8,30.01,SW,225,2.0,8.0,98,0.00,,,0.14,Wunderground v.1.15,2013-09-10 15:29:00,
2013-09-10 11:30:00,61.4,60.8,30.01,West,266,0.0,1.0,98,0.00,,,0.14,Wunderground v.1.15,2013-09-10 15:30:00,
2013-09-10 11:31:00,61.5,60.9,30.01,West,265,1.0,8.0,98,0.00,,,0.14,Wunderground v.1.15,2013-09-10 15:31:00,
2013-09-10 11:34:00,61.6,61.0,30.01,WSW,246,1.0,8.0,98,0.00,,,0.14,Wunderground v.1.15,2013-09-10 15:34:00,
2013-09-10 11:35:00,61.7,61.1,30.01,WNW,300,4.0,8.0,98,0.00,,,0.14,Wunderground v.1.15,2013-09-10 15:35:00,
2013-09-10 11:36:00,61.7,61.1,30.01,West,259,2.0,8.0,98,0.00,,,0.14,Wunderground v.1.15,2013-09-10 15:36:00,
2013-09-10 11:40:00,62.0,61.4,30.01,South,173,0.0,7.0,98,0.00,,,0.14,Wunderground v.1.15,2013-09-10 15:40:00,
2013-09-10 11:41:00,62.0,61.4,30.01,South,173,0.0,7.0,98,0.00,,,0.14,Wunderground v.1.15,2013-09-10 15:41:00,
2013-09-10 11:42:00,62.1,61.5,30.01,West,269,4.0,7.0,98,0.00,,,0.14,Wunderground v.1.15,2013-09-10 15:42:00,
2013-09-10 11:46:00,62.3,62.0,30.01,WSW,240,0.0,7.0,99,0.00,,,0.14,Wunderground v.1.15,2013-09-10 15:46:00,
2013-09-10 11:47:00,62.3,62.0,30.01,WSW,240,0.0,7.0,99,0.00,,,0.14,Wunderground v.1.15,2013-09-10 15:47:00,
2013-09-10 11:51:00,62.5,61.9,30.01,WSW,248,0.0,5.0,98,0.00,,,0.14,Wunderground v.1.15,2013-09-10 15:51:00,
2013-09-10 11:52:00,62.6,62.0,30.01,WSW,248,0.0,5.0,98,0.00,,,0.14,Wunderground v.1.15,2013-09-10 15:52:00,
2013-09-10 11:53:00,62.7,62.4,30.01,WSW,258,4.0,5.0,99,0.00,,,0.14,Wunderground v.1.15,2013-09-10 15:53:00,
2013-09-10 11:56:00,62.9,62.3,30.01,WSW,248,0.0,6.0,98,0.00,,,0.14,Wunderground v.1.15,2013-09-10 15:56:00,
2013-09-10 11:57:00,63.0,62.7,30.01,WNW,296,4.0,6.0,99,0.00,,,0.14,Wunderground v.1.15,2013-09-10 15:57:00,
2013-09-10 11:58:00,63.0,62.7,30.01,SW,215,2.0,6.0,99,0.00,,,0.14,Wunderground v.1.15,2013-09-10 15:58:00,
2013-09-10 12:01:00,63.3,63.0,30.02,West,276,1.0,3.0,99,0.00,,,0.14,Wunderground v.1.15,2013-09-10 16:01:00,
2013-09-10 12:02:00,63.5,63.2,30.02,WSW,246,0.0,5.0,99,0.00,,,0.14,Wunderground v.1.15,2013-09-10 16:02:00,
2013-09-10 12:04:00,63.5,63.5,30.01,WNW,296,1.0,5.0,100,0.00,,,0.14,Wunderground v.1.15,2013-09-10 16:04:00,
2013-09-10 12:07:00,63.6,63.3,30.02,SW,232,1.0,5.0,99,0.00,,,0.14,Wunderground v.1.15,2013-09-10 16:07:00,
2013-09-10 12:08:00,63.5,63.2,30.01,SW,232,0.0,5.0,99,0.00,,,0.14,Wunderground v.1.15,2013-09-10 16:08:00,
2013-09-10 12:10:00,63.4,62.8,30.02,West,274,1.0,1.0,98,0.00,,,0.14,Wunderground v.1.15,2013-09-10 16:10:00,
2013-09-10 12:12:00,63.3,62.7,30.02,South,174,0.0,3.0,98,0.00,,,0.14,Wunderground v.1.15,2013-09-10 16:12:00,
2013-09-10 12:13:00,63.3,62.7,30.02,South,174,0.0,3.0,98,0.00,,,0.14,Wunderground v.1.15,2013-09-10 16:13:00,
2013-09-10 12:15:00,63.2,62.6,30.02,SSW,209,0.0,5.0,98,0.00,,,0.14,Wunderground v.1.15,2013-09-10 16:15:00,
2013-09-10 12:17:00,63.2,62.6,30.02,West,271,1.0,5.0,98,0.00,,,0.14,Wunderground v.1.15,2013-09-10 16:17:00,
2013-09-10 12:18:00,63.2,62.6,30.02,SW,223,0.0,5.0,98,0.00,,,0.14,Wunderground v.1.15,2013-09-10 16:18:00,
2013-09-10 12:19:00,63.2,62.6,30.02,WSW,238,0.0,5.0,98,0.00,,,0.14,Wunderground v.1.15,2013-09-10 16:19:00,
2013-09-10 12:20:00,63.2,62.6,30.02,WNW,299,2.0,4.0,98,0.00,,,0.15,Wunderground v.1.15,2013-09-10 16:20:00,
2013-09-10 12:22:00,63.3,62.7,30.02,West,274,3.0,4.0,98,0.00,,,0.15,Wunderground v.1.15,2013-09-10 16:22:00,
2013-09-10 12:23:00,63.3,62.7,30.01,West,273,0.0,6.0,98,0.00,,,0.15,Wunderground v.1.15,2013-09-10 16:23:00,
2013-09-10 12:24:00,63.3,62.7,30.01,West,273,0.0,6.0,98,0.00,,,0.15,Wunderground v.1.15,2013-09-10 16:24:00,
2013-09-10 12:25:00,63.4,62.8,30.02,WSW,254,0.0,6.0,98,0.00,,,0.15,Wunderground v.1.15,2013-09-10 16:25:00,
2013-09-10 12:28:00,63.5,63.2,30.01,WSW,241,0.0,6.0,99,0.00,,,0.15,Wunderground v.1.15,2013-09-10 16:28:00,
2013-09-10 12:29:00,63.5,63.2,30.01,West,273,0.0,6.0,99,0.00,,,0.15,Wunderground v.1.15,2013-09-10 16:29:00,
2013-09-10 12:33:00,63.4,63.1,30.01,West,273,1.0,5.0,99,0.00,,,0.15,Wunderground v.1.15,2013-09-10 16:33:00,
2013-09-10 12:34:00,63.4,63.1,30.01,SW,234,3.0,5.0,99,0.00,,,0.15,Wunderground v.1.15,2013-09-10 16:34:00,
2013-09-10 12:35:00,63.4,62.8,30.01,SW,234,0.0,5.0,98,0.00,,,0.15,Wunderground v.1.15,2013-09-10 16:35:00,
2013-09-10 12:38:00,63.6,63.3,30.01,SW,227,0.0,5.0,99,0.00,,,0.15,Wunderground v.1.15,2013-09-10 16:38:00,
2013-09-10 12:40:00,63.6,63.3,30.01,West,267,0.0,1.0,99,0.00,,,0.15,Wunderground v.1.15,2013-09-10 16:40:00,
2013-09-10 12:43:00,63.8,63.5,30.00,NW,308,3.0,4.0,99,0.00,,,0.15,Wunderground v.1.15,2013-09-10 16:43:00,
2013-09-10 12:44:00,63.9,63.6,30.01,West,263,0.0,4.0,99,0.00,,,0.15,Wunderground v.1.15,2013-09-10 16:44:00,
2013-09-10 12:45:00,64.0,63.7,30.01,West,279,1.0,4.0,99,0.00,,,0.15,Wunderground v.1.15,2013-09-10 16:45:00,
2013-09-10 12:48:00,64.2,63.9,30.01,West,260,0.0,5.0,99,0.00,,,0.15,Wunderground v.1.15,2013-09-10 16:48:00,
2013-09-10 12:49:00,64.2,63.9,30.01,West,261,0.0,5.0,99,0.00,,,0.15,Wunderground v.1.15,2013-09-10 16:49:00,
2013-09-10 12:50:00,64.2,63.9,30.01,SW,234,3.0,4.0,99,0.00,,,0.15,Wunderground v.1.15,2013-09-10 16:50:00,
2013-09-10 12:53:00,64.4,64.1,30.01,WNW,292,0.0,4.0,99,0.00,,,0.15,Wunderground v.1.15,2013-09-10 16:53:00,
2013-09-10 12:54:00,64.4,64.1,30.01,WNW,292,1.0,4.0,99,0.00,,,0.15,Wunderground v.1.15,2013-09-10 16:54:00,
2013-09-10 12:56:00,64.5,64.2,30.01,WNW,290,2.0,5.0,99,0.00,,,0.15,Wunderground v.1.15,2013-09-10 16:56:00,
2013-09-10 12:59:00,64.6,64.3,30.01,WNW,288,0.0,5.0,99,0.00,,,0.15,Wunderground v.1.15,2013-09-10 16:59:00,
2013-09-10 13:00:00,64.7,64.4,30.01,WNW,288,0.0,5.0,99,0.00,,,0.15,Wunderground v.1.15,2013-09-10 17:00:00,
2013-09-10 13:01:00,64.8,64.5,30.01,WNW,288,0.0,2.0,99,0.00,,,0.15,Wunderground v.1.15,2013-09-10 17:01:00,
2013-09-10 13:04:00,65.0,64.7,30.01,SW,224,0.0,3.0,99,0.00,,,0.15,Wunderground v.1.15,2013-09-10 17:04:00,
2013-09-10 13:05:00,65.0,64.7,30.01,West,278,0.0,3.0,99,0.00,,,0.15,Wunderground v.1.15,2013-09-10 17:05:00,
2013-09-10 13:06:00,65.1,64.8,30.01,SW,236,1.0,3.0,99,0.00,,,0.15,Wunderground v.1.15,2013-09-10 17:06:00,
2013-09-10 13:09:00,65.2,64.9,30.01,WNW,291,4.0,5.0,99,0.00,,,0.15,Wunderground v.1.15,2013-09-10 17:09:00,
2013-09-10 13:10:00,65.2,64.9,30.01,WNW,291,1.0,1.0,99,0.00,,,0.15,Wunderground v.1.15,2013-09-10 17:10:00,
2013-09-10 13:11:00,65.1,64.5,30.01,WSW,245,0.0,4.0,98,0.00,,,0.15,Wunderground v.1.15,2013-09-10 17:11:00,
2013-09-10 13:14:00,65.3,65.0,30.01,WSW,247,1.0,4.0,99,0.00,,,0.15,Wunderground v.1.15,2013-09-10 17:14:00,
2013-09-10 13:15:00,65.4,65.1,30.01,West,262,0.0,4.0,99,0.00,,,0.15,Wunderground v.1.15,2013-09-10 17:15:00,
2013-09-10 13:16:00,65.4,65.1,30.01,West,262,0.0,4.0,99,0.00,,,0.15,Wunderground v.1.15,2013-09-10 17:16:00,
2013-09-10 13:17:00,65.4,65.1,30.01,West,262,0.0,4.0,99,0.00,,,0.15,Wunderground v.1.15,2013-09-10 17:17:00,
2013-09-10 13:19:00,65.5,65.2,30.01,NNW,345,3.0,4.0,99,0.00,,,0.15,Wunderground v.1.15,2013-09-10 17:19:00,
2013-09-10 13:20:00,65.6,65.3,30.01,NNW,345,1.0,1.0,99,0.00,,,0.15,Wunderground v.1.15,2013-09-10 17:20:00,
2013-09-10 13:23:00,65.7,65.1,30.01,WSW,257,1.0,7.0,98,0.00,,,0.15,Wunderground v.1.15,2013-09-10 17:23:00,
2013-09-10 13:24:00,65.7,65.1,30.01,West,263,2.0,7.0,98,0.00,,,0.15,Wunderground v.1.15,2013-09-10 17:24:00,
2013-09-10 13:25:00,65.7,65.1,30.01,West,264,0.0,7.0,98,0.00,,,0.15,Wunderground v.1.15,2013-09-10 17:25:00,
2013-09-10 13:28:00,65.7,65.1,30.01,SSW,205,1.0,7.0,98,0.00,,,0.15,Wunderground v.1.15,2013-09-10 17:28:00,
2013-09-10 13:29:00,65.7,65.1,30.01,WNW,300,1.0,7.0,98,0.00,,,0.15,Wunderground v.1.15,2013-09-10 17:29:00,
2013-09-10 13:30:00,65.8,65.2,30.01,SW,216,1.0,2.0,98,0.00,,,0.15,Wunderground v.1.15,2013-09-10 17:30:00,
2013-09-10 13:33:00,65.9,65.3,30.01,West,275,0.0,5.0,98,0.00,,,0.15,Wunderground v.1.15,2013-09-10 17:33:00,
2013-09-10 13:34:00,65.9,65.3,30.01,West,275,0.0,5.0,98,0.00,,,0.15,Wunderground v.1.15,2013-09-10 17:34:00,
2013-09-10 13:35:00,66.0,65.4,30.01,SW,215,0.0,5.0,98,0.00,,,0.15,Wunderground v.1.15,2013-09-10 17:35:00,
2013-09-10 13:38:00,66.3,65.7,30.01,WSW,257,0.0,5.0,98,0.00,,,0.15,Wunderground v.1.15,2013-09-10 17:38:00,
2013-09-10 13:39:00,66.3,65.7,30.01,WSW,257,1.0,5.0,98,0.00,,,0.15,Wunderground v.1.15,2013-09-10 17:39:00,
2013-09-10 13:40:00,66.4,65.8,30.01,SSW,213,0.0,1.0,98,0.00,,,0.15,Wunderground v.1.15,2013-09-10 17:40:00,
2013-09-10 13:41:00,66.4,65.8,30.01,South,189,0.0,4.0,98,0.00,,,0.15,Wunderground v.1.15,2013-09-10 17:41:00,
2013-09-10 13:44:00,66.5,65.9,30.01,WSW,237,1.0,4.0,98,0.00,,,0.15,Wunderground v.1.15,2013-09-10 17:44:00,
2013-09-10 13:45:00,66.6,66.0,30.01,West,264,1.0,5.0,98,0.00,,,0.15,Wunderground v.1.15,2013-09-10 17:45:00,
2013-09-10 13:46:00,66.7,66.1,30.01,NW,315,4.0,5.0,98,0.00,,,0.15,Wunderground v.1.15,2013-09-10 17:46:00,
2013-09-10 13:50:00,67.0,66.4,30.01,West,261,7.0,9.0,98,0.00,,,0.15,Wunderground v.1.15,2013-09-10 17:50:00,
2013-09-10 13:51:00,66.9,66.3,30.01,SW,229,0.0,9.0,98,0.00,,,0.15,Wunderground v.1.15,2013-09-10 17:51:00,
2013-09-10 13:52:00,66.9,66.0,30.01,SSE,167,0.0,9.0,97,0.00,,,0.15,Wunderground v.1.15,2013-09-10 17:52:00,
2013-09-10 13:55:00,67.0,66.1,30.01,SW,236,1.0,9.0,97,0.00,,,0.15,Wunderground v.1.15,2013-09-10 17:55:00,
2013-09-10 13:56:00,67.0,66.1,30.01,WSW,252,1.0,9.0,97,0.00,,,0.15,Wunderground v.1.15,2013-09-10 17:56:00,
2013-09-10 13:57:00,67.1,66.2,30.00,SW,219,3.0,9.0,97,0.00,,,0.15,Wunderground v.1.15,2013-09-10 17:57:00,
2013-09-10 14:00:00,67.3,66.4,30.00,West,268,3.0,8.0,97,0.00,,,0.15,Wunderground v.1.15,2013-09-10 18:00:00,
2013-09-10 14:01:00,67.3,66.4,30.00,WSW,245,0.0,8.0,97,0.00,,,0.15,Wunderground v.1.15,2013-09-10 18:01:00,
2013-09-10 14:02:00,67.3,66.4,30.00,SW,220,7.0,8.0,97,0.00,,,0.15,Wunderground v.1.15,2013-09-10 18:02:00,
2013-09-10 14:05:00,67.7,66.8,30.00,SW,231,1.0,8.0,97,0.00,,,0.15,Wunderground v.1.15,2013-09-10 18:05:00,
2013-09-10 14:07:00,68.0,67.1,30.00,SW,216,0.0,8.0,97,0.00,,,0.15,Wunderground v.1.15,2013-09-10 18:07:00,
2013-09-10 14:08:00,68.1,66.9,30.00,WSW,247,0.0,8.0,96,0.00,,,0.15,Wunderground v.1.15,2013-09-10 18:08:00,
2013-09-10 14:11:00,68.8,67.6,30.00,West,278,0.0,3.0,96,0.00,,,0.15,Wunderground v.1.15,2013-09-10 18:11:00,
2013-09-10 14:12:00,69.0,67.8,30.00,West,278,0.0,4.0,96,0.00,,,0.15,Wunderground v.1.15,2013-09-10 18:12:00,
2013-09-10 14:13:00,69.2,68.3,30.00,WNW,286,1.0,4.0,97,0.00,,,0.15,Wunderground v.1.15,2013-09-10 18:13:00,
2013-09-10 14:14:00,69.4,68.2,30.00,SSW,205,0.0,4.0,96,0.00,,,0.15,Wunderground v.1.15,2013-09-10 18:14:00,
2013-09-10 14:16:00,69.7,68.2,30.00,WNW,290,2.0,4.0,95,0.00,,,0.15,Wunderground v.1.15,2013-09-10 18:16:00,
2013-09-10 14:17:00,69.7,67.9,30.00,WSW,254,0.0,5.0,94,0.00,,,0.15,Wunderground v.1.15,2013-09-10 18:17:00,
2013-09-10 14:19:00,69.7,67.9,30.00,SSE,167,8.0,11.0,94,0.00,,,0.15,Wunderground v.1.15,2013-09-10 18:19:00,
2013-09-10 14:21:00,69.6,67.2,30.00,WSW,258,2.0,3.0,92,0.00,,,0.15,Wunderground v.1.15,2013-09-10 18:21:00,
2013-09-10 14:22:00,69.7,67.6,30.00,WSW,241,2.0,3.0,93,0.00,,,0.15,Wunderground v.1.15,2013-09-10 18:22:00,
2013-09-10 14:24:00,69.7,67.6,30.00,WSW,246,2.0,6.0,93,0.00,,,0.15,Wunderground v.1.15,2013-09-10 18:24:00,
2013-09-10 14:25:00,69.7,67.3,30.00,West,260,2.0,6.0,92,0.00,,,0.15,Wunderground v.1.15,2013-09-10 18:25:00,
2013-09-10 14:26:00,69.8,67.4,30.00,West,260,1.0,6.0,92,0.00,,,0.15,Wunderground v.1.15,2013-09-10 18:26:00,
2013-09-10 14:27:00,70.0,68.2,30.00,West,264,4.0,6.0,94,0.00,,,0.15,Wunderground v.1.15,2013-09-10 18:27:00,
2013-09-10 14:28:00,70.0,67.9,30.00,West,271,2.0,6.0,93,0.00,,,0.15,Wunderground v.1.15,2013-09-10 18:28:00,
2013-09-10 14:30:00,70.2,68.1,30.00,WSW,243,0.0,2.0,93,0.00,,,0.15,Wunderground v.1.15,2013-09-10 18:30:00,
2013-09-10 14:31:00,70.3,67.5,30.00,WSW,254,1.0,3.0,91,0.00,,,0.15,Wunderground v.1.15,2013-09-10 18:31:00,
2013-09-10 14:33:00,70.4,67.6,30.00,SW,225,1.0,4.0,91,0.00,,,0.15,Wunderground v.1.15,2013-09-10 18:33:00,
2013-09-10 14:36:00,70.6,67.8,30.00,West,259,7.0,8.0,91,0.00,,,0.15,Wunderground v.1.15,2013-09-10 18:36:00,
2013-09-10 14:38:00,70.6,67.8,30.00,WNW,286,2.0,8.0,91,0.00,,,0.15,Wunderground v.1.15,2013-09-10 18:38:00,
2013-09-10 14:41:00,70.4,67.3,30.00,WNW,296,4.0,5.0,90,0.00,,,0.15,Wunderground v.1.15,2013-09-10 18:41:00,
2013-09-10 14:42:00,70.4,67.3,30.00,WNW,286,1.0,5.0,90,0.00,,,0.15,Wunderground v.1.15,2013-09-10 18:42:00,
2013-09-10 14:43:00,70.3,67.5,30.00,WNW,286,0.0,5.0,91,0.00,,,0.15,Wunderground v.1.15,2013-09-10 18:43:00,
2013-09-10 14:47:00,70.0,67.6,30.00,West,262,3.0,5.0,92,0.00,,,0.15,Wunderground v.1.15,2013-09-10 18:47:00,
2013-09-10 14:48:00,69.8,67.1,30.00,WSW,251,0.0,5.0,91,0.00,,,0.15,Wunderground v.1.15,2013-09-10 18:48:00,
2013-09-10 14:52:00,69.5,66.8,30.00,SW,229,0.0,3.0,91,0.00,,,0.15,Wunderground v.1.15,2013-09-10 18:52:00,
2013-09-10 14:53:00,69.4,66.7,30.01,South,175,0.0,3.0,91,0.00,,,0.15,Wunderground v.1.15,2013-09-10 18:53:00,
2013-09-10 14:57:00,69.1,67.0,30.01,SSW,195,1.0,3.0,93,0.00,,,0.15,Wunderground v.1.15,2013-09-10 18:57:00,
2013-09-10 14:58:00,69.0,66.6,30.01,SW,221,0.0,3.0,92,0.00,,,0.15,Wunderground v.1.15,2013-09-10 18:58:00,
2013-09-10 14:59:00,69.0,66.6,30.01,SW,221,0.0,3.0,92,0.00,,,0.15,Wunderground v.1.15,2013-09-10 18:59:00,
2013-09-10 15:02:00,68.8,66.4,30.00,WSW,256,2.0,5.0,92,0.00,,,0.15,Wunderground v.1.15,2013-09-10 19:02:00,
2013-09-10 15:03:00,68.7,66.3,30.00,WSW,256,0.0,5.0,92,0.00,,,0.15,Wunderground v.1.15,2013-09-10 19:03:00,
2013-09-10 15:04:00,68.7,66.3,30.00,WSW,256,0.0,5.0,92,0.00,,,0.15,Wunderground v.1.15,2013-09-10 19:04:00,
2013-09-10 15:08:00,68.5,66.4,30.00,WSW,256,0.0,5.0,93,0.00,,,0.15,Wunderground v.1.15,2013-09-10 19:08:00,
2013-09-10 15:09:00,68.5,66.4,30.00,WSW,256,0.0,5.0,93,0.00,,,0.15,Wunderground v.1.15,2013-09-10 19:09:00,
2013-09-10 15:10:00,68.5,66.4,30.01,WSW,258,1.0,1.0,93,0.00,,,0.15,Wunderground v.1.15,2013-09-10 19:10:00,
2013-09-10 15:13:00,68.3,66.2,30.00,SW,229,1.0,4.0,93,0.00,,,0.15,Wunderground v.1.15,2013-09-10 19:13:00,
2013-09-10 15:14:00,68.2,65.8,30.00,SW,216,0.0,4.0,92,0.00,,,0.15,Wunderground v.1.15,2013-09-10 19:14:00,
2013-09-10 15:15:00,68.2,66.1,30.00,NNW,331,0.0,4.0,93,0.00,,,0.15,Wunderground v.1.15,2013-09-10 19:15:00,
2013-09-10 15:16:00,68.2,66.1,30.00,SSW,194,0.0,4.0,93,0.00,,,0.15,Wunderground v.1.15,2013-09-10 19:16:00,
2013-09-10 15:18:00,68.1,66.0,30.01,SW,236,0.0,6.0,93,0.00,,,0.15,Wunderground v.1.15,2013-09-10 19:18:00,
2013-09-10 15:19:00,68.0,65.9,30.00,SW,236,0.0,6.0,93,0.00,,,0.15,Wunderground v.1.15,2013-09-10 19:19:00,
2013-09-10 15:20:00,67.9,66.1,30.01,WSW,254,2.0,2.0,94,0.00,,,0.15,Wunderground v.1.15,2013-09-10 19:20:00,
2013-09-10 15:21:00,67.9,65.8,30.00,WSW,254,0.0,2.0,93,0.00,,,0.15,Wunderground v.1.15,2013-09-10 19:21:00,
2013-09-10 15:24:00,67.8,65.7,30.01,SW,221,0.0,5.0,93,0.00,,,0.15,Wunderground v.1.15,2013-09-10 19:24:00,
2013-09-10 15:26:00,67.7,65.6,30.01,SW,221,0.0,5.0,93,0.00,,,0.15,Wunderground v.1.15,2013-09-10 19:26:00,
2013-09-10 15:27:00,67.7,65.6,30.01,NW,307,3.0,5.0,93,0.00,,,0.15,Wunderground v.1.15,2013-09-10 19:27:00,
2013-09-10 15:29:00,67.7,65.6,30.01,SE,126,2.0,5.0,93,0.00,,,0.15,Wunderground v.1.15,2013-09-10 19:29:00,
2013-09-10 15:30:00,67.7,65.6,30.00,WSW,242,2.0,2.0,93,0.00,,,0.15,Wunderground v.1.15,2013-09-10 19:30:00,
2013-09-10 15:31:00,67.7,65.6,30.00,SSE,150,1.0,2.0,93,0.00,,,0.15,Wunderground v.1.15,2013-09-10 19:31:00,
2013-09-10 15:32:00,67.7,65.6,30.00,SSW,195,0.0,2.0,93,0.00,,,0.15,Wunderground v.1.15,2013-09-10 19:32:00,
2013-09-10 15:34:00,67.7,65.6,30.00,SSW,196,0.0,2.0,93,0.00,,,0.15,Wunderground v.1.15,2013-09-10 19:34:00,
2013-09-10 15:35:00,67.7,65.6,30.00,SSE,159,0.0,4.0,93,0.00,,,0.15,Wunderground v.1.15,2013-09-10 19:35:00,
2013-09-10 15:36:00,67.7,65.6,30.00,SSE,150,0.0,4.0,93,0.00,,,0.15,Wunderground v.1.15,2013-09-10 19:36:00,
2013-09-10 15:37:00,67.7,65.6,30.00,SSW,207,0.0,4.0,93,0.00,,,0.15,Wunderground v.1.15,2013-09-10 19:37:00,
2013-09-10 15:39:00,67.8,65.7,30.00,SW,232,0.0,4.0,93,0.00,,,0.15,Wunderground v.1.15,2013-09-10 19:39:00,
2013-09-10 15:40:00,67.8,65.7,30.01,SW,232,0.0,1.0,93,0.00,,,0.15,Wunderground v.1.15,2013-09-10 19:40:00,
2013-09-10 15:42:00,67.9,65.8,30.00,WSW,245,0.0,4.0,93,0.00,,,0.15,Wunderground v.1.15,2013-09-10 19:42:00,
2013-09-10 15:43:00,67.9,65.8,30.00,WSW,245,1.0,4.0,93,0.00,,,0.15,Wunderground v.1.15,2013-09-10 19:43:00,
2013-09-10 15:44:00,67.9,65.8,30.00,West,272,0.0,4.0,93,0.00,,,0.15,Wunderground v.1.15,2013-09-10 19:44:00,
2013-09-10 15:45:00,67.9,65.8,30.00,West,272,0.0,4.0,93,0.00,,,0.15,Wunderground v.1.15,2013-09-10 19:45:00,
2013-09-10 15:48:00,68.0,65.9,30.01,SSW,199,0.0,4.0,93,0.00,,,0.15,Wunderground v.1.15,2013-09-10 19:48:00,
2013-09-10 15:49:00,68.0,65.9,30.00,South,177,0.0,4.0,93,0.00,,,0.15,Wunderground v.1.15,2013-09-10 19:49:00,
2013-09-10 15:50:00,68.0,65.9,30.00,South,177,0.0,0.0,93,0.00,,,0.15,Wunderground v.1.15,2013-09-10 19:50:00,
2013-09-10 15:53:00,68.0,65.9,30.00,South,182,0.0,3.0,93,0.00,,,0.15,Wunderground v.1.15,2013-09-10 19:53:00,
2013-09-10 15:54:00,68.1,66.0,30.00,South,182,0.0,3.0,93,0.00,,,0.15,Wunderground v.1.15,2013-09-10 19:54:00,
2013-09-10 15:55:00,68.1,66.0,30.00,SSW,212,0.0,3.0,93,0.00,,,0.15,Wunderground v.1.15,2013-09-10 19:55:00,
2013-09-10 15:58:00,68.3,66.2,30.00,SSW,212,0.0,3.0,93,0.00,,,0.15,Wunderground v.1.15,2013-09-10 19:58:00,
2013-09-10 15:59:00,68.3,66.2,30.00,SSE,150,5.0,8.0,93,0.00,,,0.15,Wunderground v.1.15,2013-09-10 19:59:00,
2013-09-10 16:00:00,68.3,66.2,30.00,SSW,202,0.0,0.0,93,0.00,,,0.15,Wunderground v.1.15,2013-09-10 20:00:00,
2013-09-10 16:01:00,68.4,66.0,30.00,SW,223,0.0,1.0,92,0.00,,,0.15,Wunderground v.1.15,2013-09-10 20:01:00,
2013-09-10 16:04:00,68.6,66.2,30.00,SE,145,1.0,3.0,92,0.00,,,0.15,Wunderground v.1.15,2013-09-10 20:04:00,
2013-09-10 16:05:00,68.6,66.2,30.00,SE,145,0.0,4.0,92,0.00,,,0.15,Wunderground v.1.15,2013-09-10 20:05:00,
2013-09-10 16:06:00,68.6,66.5,30.00,West,269,1.0,4.0,93,0.00,,,0.15,Wunderground v.1.15,2013-09-10 20:06:00,
2013-09-10 16:09:00,68.8,66.4,30.00,WSW,243,0.0,4.0,92,0.00,,,0.15,Wunderground v.1.15,2013-09-10 20:09:00,
2013-09-10 16:11:00,68.9,66.5,30.00,South,190,0.0,1.0,92,0.00,,,0.15,Wunderground v.1.15,2013-09-10 20:11:00,
2013-09-10 16:12:00,69.0,66.6,30.00,WSW,237,1.0,1.0,92,0.00,,,0.15,Wunderground v.1.15,2013-09-10 20:12:00,
2013-09-10 16:14:00,69.0,66.6,30.00,SSW,212,0.0,3.0,92,0.00,,,0.15,Wunderground v.1.15,2013-09-10 20:14:00,
2013-09-10 16:15:00,69.1,66.7,30.00,SW,223,0.0,5.0,92,0.00,,,0.15,Wunderground v.1.15,2013-09-10 20:15:00,
2013-09-10 16:16:00,69.1,66.7,30.00,WSW,257,0.0,5.0,92,0.00,,,0.15,Wunderground v.1.15,2013-09-10 20:16:00,
2013-09-10 16:17:00,69.1,66.7,30.00,WSW,257,0.0,5.0,92,0.00,,,0.15,Wunderground v.1.15,2013-09-10 20:17:00,
2013-09-10 16:19:00,69.3,66.6,30.00,South,188,0.0,5.0,91,0.00,,,0.15,Wunderground v.1.15,2013-09-10 20:19:00,
2013-09-10 16:20:00,69.3,66.9,30.00,SSW,203,2.0,3.0,92,0.00,,,0.15,Wunderground v.1.15,2013-09-10 20:20:00,
2013-09-10 16:22:00,69.4,66.7,30.00,SW,219,1.0,3.0,91,0.00,,,0.15,Wunderground v.1.15,2013-09-10 20:22:00,
2013-09-10 16:23:00,69.4,66.7,30.00,SSE,150,0.0,4.0,91,0.00,,,0.15,Wunderground v.1.15,2013-09-10 20:23:00,
2013-09-10 16:25:00,69.5,66.4,30.00,SSW,199,0.0,4.0,90,0.00,,,0.15,Wunderground v.1.15,2013-09-10 20:25:00,
2013-09-10 16:27:00,69.7,67.0,30.00,SW,225,0.0,4.0,91,0.00,,,0.15,Wunderground v.1.15,2013-09-10 20:27:00,
2013-09-10 16:29:00,69.8,67.4,29.99,WSW,251,2.0,4.0,92,0.00,,,0.15,Wunderground v.1.15,2013-09-10 20:29:00,
2013-09-10 16:30:00,69.9,67.2,30.00,West,263,0.0,1.0,91,0.00,,,0.15,Wunderground v.1.15,2013-09-10 20:30:00,
2013-09-10 16:32:00,69.9,66.8,29.99,West,263,1.0,1.0,90,0.00,,,0.15,Wunderground v.1.15,2013-09-10 20:32:00,
2013-09-10 16:34:00,70.0,66.9,29.99,WNW,284,2.0,4.0,90,0.00,,,0.15,Wunderground v.1.15,2013-09-10 20:34:00,
2013-09-10 16:35:00,70.0,66.9,29.99,South,188,2.0,5.0,90,0.00,,,0.15,Wunderground v.1.15,2013-09-10 20:35:00,
2013-09-10 16:37:00,70.1,67.3,29.99,West,272,0.0,6.0,91,0.00,,,0.15,Wunderground v.1.15,2013-09-10 20:37:00,
2013-09-10 16:39:00,70.1,67.7,29.99,West,272,0.0,6.0,92,0.00,,,0.15,Wunderground v.1.15,2013-09-10 20:39:00,
2013-09-10 16:40:00,70.1,67.7,29.99,West,272,0.0,0.0,92,0.00,,,0.15,Wunderground v.1.15,2013-09-10 20:40:00,
2013-09-10 16:41:00,70.1,67.7,29.99,West,272,0.0,0.0,92,0.00,,,0.15,Wunderground v.1.15,2013-09-10 20:41:00,
2013-09-10 16:42:00,70.1,67.0,29.99,SW,234,0.0,8.0,90,0.00,,,0.15,Wunderground v.1.15,2013-09-10 20:42:00,
2013-09-10 16:43:00,70.1,67.0,29.99,SW,234,0.0,8.0,90,0.00,,,0.15,Wunderground v.1.15,2013-09-10 20:43:00,
2013-09-10 16:44:00,70.1,67.0,29.99,WNW,290,2.0,8.0,90,0.00,,,0.15,Wunderground v.1.15,2013-09-10 20:44:00,
2013-09-10 16:46:00,70.1,67.3,29.99,WNW,283,1.0,8.0,91,0.00,,,0.15,Wunderground v.1.15,2013-09-10 20:46:00,
2013-09-10 16:47:00,70.1,67.3,29.99,SW,220,3.0,8.0,91,0.00,,,0.15,Wunderground v.1.15,2013-09-10 20:47:00,
2013-09-10 16:48:00,70.1,67.0,29.99,SW,231,0.0,8.0,90,0.00,,,0.15,Wunderground v.1.15,2013-09-10 20:48:00,
2013-09-10 16:49:00,70.0,67.3,29.99,WSW,238,4.0,8.0,91,0.00,,,0.15,Wunderground v.1.15,2013-09-10 20:49:00,
2013-09-10 16:51:00,70.1,67.3,29.99,South,190,0.0,1.0,91,0.00,,,0.15,Wunderground v.1.15,2013-09-10 20:51:00,
2013-09-10 16:52:00,70.1,67.0,29.99,South,190,0.0,1.0,90,0.00,,,0.15,Wunderground v.1.15,2013-09-10 20:52:00,
2013-09-10 16:53:00,70.1,67.7,29.99,South,186,0.0,2.0,92,0.00,,,0.15,Wunderground v.1.15,2013-09-10 20:53:00,
2013-09-10 16:54:00,70.1,67.3,29.99,South,186,0.0,2.0,91,0.00,,,0.15,Wunderground v.1.15,2013-09-10 20:54:00,
2013-09-10 16:55:00,70.1,67.3,29.99,SW,236,1.0,4.0,91,0.00,,,0.15,Wunderground v.1.15,2013-09-10 20:55:00,
2013-09-10 16:56:00,70.1,67.3,29.99,SW,235,0.0,4.0,91,0.00,,,0.15,Wunderground v.1.15,2013-09-10 20:56:00,
2013-09-10 16:57:00,70.1,67.7,29.99,South,182,2.0,4.0,92,0.00,,,0.15,Wunderground v.1.15,2013-09-10 20:57:00,
2013-09-10 16:58:00,70.2,67.8,29.99,SSW,205,1.0,4.0,92,0.00,,,0.15,Wunderground v.1.15,2013-09-10 20:58:00,
2013-09-10 16:59:00,70.3,67.9,29.99,SW,221,0.0,4.0,92,0.00,,,0.15,Wunderground v.1.15,2013-09-10 20:59:00,
2013-09-10 17:01:00,70.3,67.5,29.99,SW,227,2.0,3.0,91,0.00,,,0.15,Wunderground v.1.15,2013-09-10 21:01:00,
2013-09-10 17:02:00,70.4,67.6,29.99,WSW,240,1.0,4.0,91,0.00,,,0.15,Wunderground v.1.15,2013-09-10 21:02:00,
2013-09-10 17:03:00,70.4,67.6,29.99,SSW,195,0.0,4.0,91,0.00,,,0.15,Wunderground v.1.15,2013-09-10 21:03:00,
2013-09-10 17:05:00,70.5,67.7,29.99,SW,228,0.0,4.0,91,0.00,,,0.15,Wunderground v.1.15,2013-09-10 21:05:00,
2013-09-10 17:06:00,70.5,68.1,29.99,SW,225,0.0,4.0,92,0.00,,,0.15,Wunderground v.1.15,2013-09-10 21:06:00,
2013-09-10 17:07:00,70.5,67.7,29.99,SW,232,0.0,4.0,91,0.00,,,0.15,Wunderground v.1.15,2013-09-10 21:07:00,
2013-09-10 17:09:00,70.6,67.8,29.99,WSW,246,0.0,5.0,91,0.00,,,0.15,Wunderground v.1.15,2013-09-10 21:09:00,
2013-09-10 17:11:00,70.6,67.8,29.99,West,266,1.0,1.0,91,0.00,,,0.15,Wunderground v.1.15,2013-09-10 21:11:00,
2013-09-10 17:12:00,70.6,67.8,29.99,West,271,0.0,3.0,91,0.00,,,0.15,Wunderground v.1.15,2013-09-10 21:12:00,
2013-09-10 17:14:00,70.6,68.2,29.99,West,271,0.0,3.0,92,0.00,,,0.15,Wunderground v.1.15,2013-09-10 21:14:00,
2013-09-10 17:16:00,70.5,67.7,29.99,West,271,0.0,3.0,91,0.00,,,0.15,Wunderground v.1.15,2013-09-10 21:16:00,
2013-09-10 17:17:00,70.5,68.1,29.99,West,271,0.0,3.0,92,0.00,,,0.15,Wunderground v.1.15,2013-09-10 21:17:00,
2013-09-10 17:18:00,70.5,68.1,29.99,West,271,0.0,3.0,92,0.00,,,0.15,Wunderground v.1.15,2013-09-10 21:18:00,
2013-09-10 17:19:00,70.5,68.1,29.99,West,271,0.0,3.0,92,0.00,,,0.15,Wunderground v.1.15,2013-09-10 21:19:00,
2013-09-10 17:21:00,70.6,68.2,29.99,SSW,213,0.0,1.0,92,0.00,,,0.15,Wunderground v.1.15,2013-09-10 21:21:00,
2013-09-10 17:22:00,70.6,68.2,29.99,SSW,213,0.0,1.0,92,0.00,,,0.15,Wunderground v.1.15,2013-09-10 21:22:00,
2013-09-10 17:23:00,70.6,68.2,29.99,South,177,0.0,2.0,92,0.00,,,0.15,Wunderground v.1.15,2013-09-10 21:23:00,
2013-09-10 17:24:00,70.6,68.2,29.99,WSW,251,1.0,2.0,92,0.00,,,0.15,Wunderground v.1.15,2013-09-10 21:24:00,
2013-09-10 17:26:00,70.7,68.3,29.99,WSW,238,0.0,2.0,92,0.00,,,0.15,Wunderground v.1.15,2013-09-10 21:26:00,
2013-09-10 17:28:00,71.0,68.6,29.99,WSW,238,0.0,2.0,92,0.00,,,0.15,Wunderground v.1.15,2013-09-10 21:28:00,
2013-09-10 17:30:00,71.1,68.3,30.00,WSW,251,0.0,3.0,91,0.00,,,0.15,Wunderground v.1.15,2013-09-10 21:30:00,
2013-09-10 17:31:00,71.2,68.4,29.99,WSW,251,0.0,1.0,91,0.00,,,0.15,Wunderground v.1.15,2013-09-10 21:31:00,
2013-09-10 17:32:00,71.2,68.4,29.99,West,259,0.0,2.0,91,0.00,,,0.15,Wunderground v.1.15,2013-09-10 21:32:00,
2013-09-10 17:33:00,71.3,68.5,30.00,West,259,1.0,2.0,91,0.00,,,0.15,Wunderground v.1.15,2013-09-10 21:33:00,
2013-09-10 17:35:00,71.3,68.5,30.00,WSW,243,0.0,2.0,91,0.00,,,0.15,Wunderground v.1.15,2013-09-10 21:35:00,
2013-09-10 17:36:00,71.3,68.5,30.00,WSW,243,0.0,2.0,91,0.00,,,0.15,Wunderground v.1.15,2013-09-10 21:36:00,
2013-09-10 17:37:00,71.3,68.5,30.00,WNW,283,2.0,3.0,91,0.00,,,0.15,Wunderground v.1.15,2013-09-10 21:37:00,
2013-09-10 17:38:00,71.2,68.1,30.00,WNW,283,0.0,3.0,90,0.00,,,0.15,Wunderground v.1.15,2013-09-10 21:38:00,
2013-09-10 17:40:00,71.2,68.4,30.00,WNW,283,0.0,0.0,91,0.00,,,0.15,Wunderground v.1.15,2013-09-10 21:40:00,
2013-09-10 17:41:00,71.1,68.3,30.00,SW,232,0.0,3.0,91,0.00,,,0.15,Wunderground v.1.15,2013-09-10 21:41:00,
2013-09-10 17:42:00,71.1,68.7,30.00,SW,232,0.0,3.0,92,0.00,,,0.15,Wunderground v.1.15,2013-09-10 21:42:00,
2013-09-10 17:43:00,71.1,68.7,30.00,SW,232,0.0,3.0,92,0.00,,,0.15,Wunderground v.1.15,2013-09-10 21:43:00,
2013-09-10 17:45:00,70.9,68.1,30.00,WNW,297,0.0,4.0,91,0.00,,,0.15,Wunderground v.1.15,2013-09-10 21:45:00,
2013-09-10 17:46:00,70.8,68.0,30.00,WNW,297,1.0,4.0,91,0.00,,,0.15,Wunderground v.1.15,2013-09-10 21:46:00,
2013-09-10 17:48:00,70.7,68.3,30.00,SW,215,0.0,5.0,92,0.00,,,0.15,Wunderground v.1.15,2013-09-10 21:48:00,
2013-09-10 17:51:00,70.4,68.0,30.00,SW,215,0.0,1.0,92,0.00,,,0.15,Wunderground v.1.15,2013-09-10 21:51:00,
2013-09-10 17:52:00,70.3,67.9,30.00,WSW,257,0.0,2.0,92,0.00,,,0.15,Wunderground v.1.15,2013-09-10 21:52:00,
2013-09-10 17:53:00,70.3,67.9,30.00,WSW,257,0.0,2.0,92,0.00,,,0.15,Wunderground v.1.15,2013-09-10 21:53:00,
2013-09-10 17:54:00,70.2,67.8,30.00,WSW,250,0.0,2.0,92,0.00,,,0.15,Wunderground v.1.15,2013-09-10 21:54:00,
2013-09-10 17:56:00,70.0,67.9,30.00,SW,214,0.0,2.0,93,0.00,,,0.15,Wunderground v.1.15,2013-09-10 21:56:00,
2013-09-10 17:57:00,69.9,67.8,30.00,West,274,0.0,2.0,93,0.00,,,0.15,Wunderground v.1.15,2013-09-10 21:57:00,
2013-09-10 17:58:00,69.9,67.8,30.00,West,274,0.0,2.0,93,0.00,,,0.15,Wunderground v.1.15,2013-09-10 21:58:00,
2013-09-10 18:00:00,69.7,67.6,30.00,West,274,0.0,0.0,93,0.00,,,0.15,Wunderground v.1.15,2013-09-10 22:00:00,
2013-09-10 18:01:00,69.7,67.6,30.00,West,274,0.0,0.0,93,0.00,,,0.15,Wunderground v.1.15,2013-09-10 22:01:00,
2013-09-10 18:03:00,69.6,67.5,30.00,West,273,0.0,4.0,93,0.00,,,0.15,Wunderground v.1.15,2013-09-10 22:03:00,
2013-09-10 18:04:00,69.6,67.5,30.00,West,273,0.0,4.0,93,0.00,,,0.15,Wunderground v.1.15,2013-09-10 22:04:00,
2013-09-10 18:05:00,69.5,67.7,30.00,West,273,0.0,4.0,94,0.00,,,0.15,Wunderground v.1.15,2013-09-10 22:05:00,
2013-09-10 18:06:00,69.5,67.7,30.00,West,273,0.0,4.0,94,0.00,,,0.15,Wunderground v.1.15,2013-09-10 22:06:00,
2013-09-10 18:08:00,69.4,67.6,30.00,West,279,0.0,4.0,94,0.00,,,0.15,Wunderground v.1.15,2013-09-10 22:08:00,
2013-09-10 18:09:00,69.4,67.6,30.00,WSW,244,0.0,4.0,94,0.00,,,0.15,Wunderground v.1.15,2013-09-10 22:09:00,
2013-09-10 18:11:00,69.4,67.6,30.00,WSW,244,0.0,1.0,94,0.00,,,0.15,Wunderground v.1.15,2013-09-10 22:11:00,
2013-09-10 18:14:00,69.3,67.5,30.00,WSW,240,2.0,3.0,94,0.00,,,0.15,Wunderground v.1.15,2013-09-10 22:14:00,
2013-09-10 18:16:00,69.3,67.5,30.00,WNW,282,1.0,4.0,94,0.00,,,0.15,Wunderground v.1.15,2013-09-10 22:16:00,
2013-09-10 18:17:00,69.3,67.5,30.00,WNW,282,0.0,4.0,94,0.00,,,0.15,Wunderground v.1.15,2013-09-10 22:17:00,
2013-09-10 18:19:00,69.3,67.5,30.00,WSW,255,0.0,4.0,94,0.00,,,0.15,Wunderground v.1.15,2013-09-10 22:19:00,
2013-09-10 18:20:00,69.3,67.5,30.00,WSW,255,0.0,0.0,94,0.00,,,0.15,Wunderground v.1.15,2013-09-10 22:20:00,
2013-09-10 18:21:00,69.3,67.5,30.00,WSW,255,0.0,0.0,94,0.00,,,0.15,Wunderground v.1.15,2013-09-10 22:21:00,
2013-09-10 18:22:00,69.3,67.5,30.00,WSW,255,0.0,0.0,94,0.00,,,0.15,Wunderground v.1.15,2013-09-10 22:22:00,
2013-09-10 18:24:00,69.3,67.5,30.00,SSW,197,0.0,1.0,94,0.00,,,0.15,Wunderground v.1.15,2013-09-10 22:24:00,
2013-09-10 18:26:00,69.3,67.5,30.00,South,184,0.0,5.0,94,0.00,,,0.15,Wunderground v.1.15,2013-09-10 22:26:00,
2013-09-10 18:27:00,69.3,67.5,30.00,South,184,0.0,5.0,94,0.00,,,0.15,Wunderground v.1.15,2013-09-10 22:27:00,
2013-09-10 18:29:00,69.3,67.5,30.00,West,269,0.0,5.0,94,0.00,,,0.15,Wunderground v.1.15,2013-09-10 22:29:00,
2013-09-10 18:32:00,69.3,67.5,30.00,West,267,0.0,4.0,94,0.00,,,0.15,Wunderground v.1.15,2013-09-10 22:32:00,
2013-09-10 18:33:00,69.3,67.5,30.00,West,267,0.0,4.0,94,0.00,,,0.15,Wunderground v.1.15,2013-09-10 22:33:00,
2013-09-10 18:34:00,69.4,67.6,30.00,West,267,0.0,4.0,94,0.00,,,0.15,Wunderground v.1.15,2013-09-10 22:34:00,
2013-09-10 18:35:00,69.4,67.6,30.00,West,267,0.0,4.0,94,0.00,,,0.15,Wunderground v.1.15,2013-09-10 22:35:00,
2013-09-10 18:37:00,69.4,67.6,30.00,West,267,0.0,4.0,94,0.00,,,0.15,Wunderground v.1.15,2013-09-10 22:37:00,
2013-09-10 18:38:00,69.4,67.6,30.00,West,267,0.0,4.0,94,0.00,,,0.15,Wunderground v.1.15,2013-09-10 22:38:00,
2013-09-10 18:39:00,69.4,67.6,30.00,West,267,0.0,4.0,94,0.00,,,0.15,Wunderground v.1.15,2013-09-10 22:39:00,
2013-09-10 18:40:00,69.4,67.6,30.00,West,267,0.0,0.0,94,0.00,,,0.15,Wunderground v.1.15,2013-09-10 22:40:00,
2013-09-10 18:42:00,69.4,67.6,30.00,West,267,0.0,0.0,94,0.00,,,0.15,Wunderground v.1.15,2013-09-10 22:42:00,
2013-09-10 18:43:00,69.4,67.6,30.00,West,267,0.0,0.0,94,0.00,,,0.15,Wunderground v.1.15,2013-09-10 22:43:00,
2013-09-10 18:45:00,69.4,67.6,30.00,West,267,0.0,1.0,94,0.00,,,0.15,Wunderground v.1.15,2013-09-10 22:45:00,
2013-09-10 18:46:00,69.4,67.6,30.00,West,267,0.0,1.0,94,0.00,,,0.15,Wunderground v.1.15,2013-09-10 22:46:00,
2013-09-10 18:47:00,69.4,67.6,30.00,West,267,0.0,1.0,94,0.00,,,0.15,Wunderground v.1.15,2013-09-10 22:47:00,
2013-09-10 18:48:00,69.4,67.6,30.00,West,267,0.0,1.0,94,0.00,,,0.15,Wunderground v.1.15,2013-09-10 22:48:00,
2013-09-10 18:50:00,69.3,67.5,30.00,West,267,0.0,0.0,94,0.00,,,0.15,Wunderground v.1.15,2013-09-10 22:50:00,
2013-09-10 18:51:00,69.3,67.5,30.00,West,267,0.0,0.0,94,0.00,,,0.15,Wunderground v.1.15,2013-09-10 22:51:00,
2013-09-10 18:53:00,69.4,67.6,30.00,West,267,0.0,0.0,94,0.00,,,0.15,Wunderground v.1.15,2013-09-10 22:53:00,
2013-09-10 18:55:00,69.3,67.5,30.00,West,267,0.0,1.0,94,0.00,,,0.15,Wunderground v.1.15,2013-09-10 22:55:00,
2013-09-10 18:56:00,69.3,67.5,30.00,West,267,0.0,1.0,94,0.00,,,0.15,Wunderground v.1.15,2013-09-10 22:56:00,
2013-09-10 18:57:00,69.3,67.5,30.00,West,267,0.0,1.0,94,0.00,,,0.15,Wunderground v.1.15,2013-09-10 22:57:00,
2013-09-10 18:58:00,69.4,67.6,30.00,West,267,0.0,1.0,94,0.00,,,0.15,Wunderground v.1.15,2013-09-10 22:58:00,
2013-09-10 19:00:00,69.4,67.6,30.00,West,275,0.0,3.0,94,0.00,,,0.15,Wunderground v.1.15,2013-09-10 23:00:00,
2013-09-10 19:01:00,69.4,67.6,30.00,West,275,0.0,3.0,94,0.00,,,0.15,Wunderground v.1.15,2013-09-10 23:01:00,
2013-09-10 19:02:00,69.4,67.6,30.00,West,275,0.0,3.0,94,0.00,,,0.15,Wunderground v.1.15,2013-09-10 23:02:00,
2013-09-10 19:03:00,69.4,67.6,30.00,West,275,0.0,3.0,94,0.00,,,0.15,Wunderground v.1.15,2013-09-10 23:03:00,
2013-09-10 19:04:00,69.4,67.6,30.00,West,275,0.0,3.0,94,0.00,,,0.15,Wunderground v.1.15,2013-09-10 23:04:00,
2013-09-10 19:06:00,69.4,67.6,30.00,West,275,0.0,3.0,94,0.00,,,0.15,Wunderground v.1.15,2013-09-10 23:06:00,
2013-09-10 19:07:00,69.4,67.6,30.00,West,275,0.0,3.0,94,0.00,,,0.15,Wunderground v.1.15,2013-09-10 23:07:00,
2013-09-10 19:09:00,69.4,67.6,30.00,SSW,204,2.0,3.0,94,0.00,,,0.15,Wunderground v.1.15,2013-09-10 23:09:00,
2013-09-10 19:11:00,69.4,67.6,30.00,SSW,204,0.0,0.0,94,0.00,,,0.15,Wunderground v.1.15,2013-09-10 23:11:00,
2013-09-10 19:12:00,69.4,67.6,30.01,SSW,204,1.0,1.0,94,0.00,,,0.15,Wunderground v.1.15,2013-09-10 23:12:00,
2013-09-10 19:14:00,69.4,67.6,30.00,SSW,204,0.0,1.0,94,0.00,,,0.15,Wunderground v.1.15,2013-09-10 23:14:00,
2013-09-10 19:16:00,69.3,67.5,30.01,SSW,204,0.0,1.0,94,0.00,,,0.15,Wunderground v.1.15,2013-09-10 23:16:00,
2013-09-10 19:17:00,69.3,67.5,30.01,SW,215,1.0,1.0,94,0.00,,,0.15,Wunderground v.1.15,2013-09-10 23:17:00,
2013-09-10 19:20:00,69.3,67.5,30.01,SW,215,1.0,1.0,94,0.00,,,0.15,Wunderground v.1.15,2013-09-10 23:20:00,
2013-09-10 19:21:00,69.2,67.4,30.01,SW,215,0.0,2.0,94,0.00,,,0.15,Wunderground v.1.15,2013-09-10 23:21:00,
2013-09-10 19:22:00,69.2,67.4,30.01,South,181,0.0,2.0,94,0.00,,,0.15,Wunderground v.1.15,2013-09-10 23:22:00,
2013-09-10 19:25:00,69.2,67.7,30.01,South,181,0.0,2.0,95,0.00,,,0.15,Wunderground v.1.15,2013-09-10 23:25:00,
2013-09-10 19:26:00,69.2,67.7,30.01,West,276,0.0,2.0,95,0.00,,,0.15,Wunderground v.1.15,2013-09-10 23:26:00,
2013-09-10 19:27:00,69.2,67.7,30.01,SSE,159,4.0,4.0,95,0.00,,,0.15,Wunderground v.1.15,2013-09-10 23:27:00,
2013-09-10 19:30:00,69.2,67.7,30.01,West,271,0.0,2.0,95,0.00,,,0.15,Wunderground v.1.15,2013-09-10 23:30:00,
2013-09-10 19:31:00,69.2,67.7,30.01,West,271,0.0,2.0,95,0.00,,,0.15,Wunderground v.1.15,2013-09-10 23:31:00,
2013-09-10 19:32:00,69.2,67.4,30.01,West,269,0.0,2.0,94,0.00,,,0.15,Wunderground v.1.15,2013-09-10 23:32:00,
2013-09-10 19:35:00,69.3,67.5,30.01,NW,315,0.0,2.0,94,0.00,,,0.15,Wunderground v.1.15,2013-09-10 23:35:00,
2013-09-10 19:36:00,69.3,67.5,30.02,West,264,0.0,2.0,94,0.00,,,0.15,Wunderground v.1.15,2013-09-10 23:36:00,
2013-09-10 19:37:00,69.3,67.5,30.02,West,264,0.0,2.0,94,0.00,,,0.15,Wunderground v.1.15,2013-09-10 23:37:00,
2013-09-10 19:40:00,69.4,67.6,30.02,WSW,254,0.0,1.0,94,0.00,,,0.15,Wunderground v.1.15,2013-09-10 23:40:00,
2013-09-10 19:41:00,69.4,67.6,30.02,WSW,254,0.0,1.0,94,0.00,,,0.15,Wunderground v.1.15,2013-09-10 23:41:00,
2013-09-10 19:42:00,69.4,67.6,30.02,WSW,254,0.0,1.0,94,0.00,,,0.15,Wunderground v.1.15,2013-09-10 23:42:00,
2013-09-10 19:45:00,69.4,67.6,30.02,SW,214,0.0,1.0,94,0.00,,,0.15,Wunderground v.1.15,2013-09-10 23:45:00,
2013-09-10 19:46:00,69.4,67.6,30.02,SW,214,0.0,1.0,94,0.00,,,0.15,Wunderground v.1.15,2013-09-10 23:46:00,
2013-09-10 19:47:00,69.4,67.6,30.02,NW,321,0.0,3.0,94,0.00,,,0.15,Wunderground v.1.15,2013-09-10 23:47:00,
2013-09-10 19:48:00,69.4,67.6,30.02,NW,321,0.0,3.0,94,0.00,,,0.15,Wunderground v.1.15,2013-09-10 23:48:00,
2013-09-10 19:49:00,69.4,67.6,30.02,SW,226,0.0,3.0,94,0.00,,,0.15,Wunderground v.1.15,2013-09-10 23:49:00,
2013-09-10 19:50:00,69.4,67.6,30.02,SW,226,0.0,0.0,94,0.00,,,0.15,Wunderground v.1.15,2013-09-10 23:50:00,
2013-09-10 19:51:00,69.4,67.6,30.02,SW,226,0.0,0.0,94,0.00,,,0.15,Wunderground v.1.15,2013-09-10 23:51:00,
2013-09-10 19:53:00,69.4,67.6,30.02,SW,226,0.0,0.0,94,0.00,,,0.15,Wunderground v.1.15,2013-09-10 23:53:00,
2013-09-10 19:54:00,69.5,67.7,30.02,SW,226,0.0,0.0,94,0.00,,,0.15,Wunderground v.1.15,2013-09-10 23:54:00,
2013-09-10 19:55:00,69.5,67.7,30.02,SW,226,0.0,0.0,94,0.00,,,0.15,Wunderground v.1.15,2013-09-10 23:55:00,
2013-09-10 19:57:00,69.4,67.6,30.02,SW,226,0.0,0.0,94,0.00,,,0.15,Wunderground v.1.15,2013-09-10 23:57:00,
2013-09-10 19:58:00,69.4,67.6,30.02,SW,226,0.0,0.0,94,0.00,,,0.15,Wunderground v.1.15,2013-09-10 23:58:00,
2013-09-10 19:59:00,69.4,67.6,30.02,SW,226,0.0,0.0,94,0.00,,,0.15,Wunderground v.1.15,2013-09-10 23:59:00,
2013-09-10 20:00:00,69.4,67.6,30.02,SW,226,0.0,0.0,94,0.00,,,0.15,Wunderground v.1.15,2013-09-11 00:00:00,
2013-09-10 20:02:00,69.4,67.6,30.02,SW,226,0.0,0.0,94,0.00,,,0.15,Wunderground v.1.15,2013-09-11 00:02:00,
2013-09-10 20:03:00,69.4,67.6,30.02,SW,226,0.0,0.0,94,0.00,,,0.15,Wunderground v.1.15,2013-09-11 00:03:00,
2013-09-10 20:04:00,69.4,67.6,30.02,SW,226,0.0,0.0,94,0.00,,,0.15,Wunderground v.1.15,2013-09-11 00:04:00,
2013-09-10 20:05:00,69.4,67.6,30.02,SW,226,0.0,0.0,94,0.00,,,0.15,Wunderground v.1.15,2013-09-11 00:05:00,
2013-09-10 20:08:00,69.3,67.5,30.02,SW,226,0.0,0.0,94,0.00,,,0.15,Wunderground v.1.15,2013-09-11 00:08:00,
2013-09-10 20:09:00,69.3,67.5,30.02,SW,226,0.0,0.0,94,0.00,,,0.15,Wunderground v.1.15,2013-09-11 00:09:00,
2013-09-10 20:10:00,69.3,67.5,30.02,SW,226,0.0,0.0,94,0.00,,,0.15,Wunderground v.1.15,2013-09-11 00:10:00,
2013-09-10 20:11:00,69.3,67.5,30.02,SW,226,0.0,0.0,94,0.00,,,0.15,Wunderground v.1.15,2013-09-11 00:11:00,
2013-09-10 20:13:00,69.3,67.5,30.02,SW,226,0.0,0.0,94,0.00,,,0.15,Wunderground v.1.15,2013-09-11 00:13:00,
2013-09-10 20:15:00,69.3,67.5,30.02,SW,226,0.0,0.0,94,0.00,,,0.15,Wunderground v.1.15,2013-09-11 00:15:00,
2013-09-10 20:16:00,69.3,67.2,30.02,SW,226,0.0,0.0,93,0.00,,,0.15,Wunderground v.1.15,2013-09-11 00:16:00,
2013-09-10 20:18:00,69.2,67.1,30.02,NNW,342,0.0,3.0,93,0.00,,,0.15,Wunderground v.1.15,2013-09-11 00:18:00,
2013-09-10 20:20:00,69.2,67.1,30.03,NNW,342,0.0,0.0,93,0.00,,,0.15,Wunderground v.1.15,2013-09-11 00:20:00,
2013-09-10 20:21:00,69.1,67.3,30.02,NNW,342,0.0,0.0,94,0.00,,,0.15,Wunderground v.1.15,2013-09-11 00:21:00,
2013-09-10 20:23:00,69.1,67.3,30.03,NNW,342,0.0,1.0,94,0.00,,,0.15,Wunderground v.1.15,2013-09-11 00:23:00,
2013-09-10 20:25:00,69.0,67.2,30.03,NNW,342,0.0,1.0,94,0.00,,,0.15,Wunderground v.1.15,2013-09-11 00:25:00,
2013-09-10 20:27:00,68.9,67.4,30.03,SSE,164,0.0,5.0,95,0.00,,,0.15,Wunderground v.1.15,2013-09-11 00:27:00,
2013-09-10 20:28:00,69.0,67.5,30.03,SSE,149,0.0,5.0,95,0.00,,,0.15,Wunderground v.1.15,2013-09-11 00:28:00,
2013-09-10 20:29:00,69.0,67.5,30.03,South,182,0.0,5.0,95,0.00,,,0.15,Wunderground v.1.15,2013-09-11 00:29:00,
2013-09-10 20:31:00,69.0,67.2,30.03,South,182,0.0,0.0,94,0.00,,,0.15,Wunderground v.1.15,2013-09-11 00:31:00,
2013-09-10 20:33:00,69.0,67.2,30.03,South,182,0.0,0.0,94,0.00,,,0.15,Wunderground v.1.15,2013-09-11 00:33:00,
2013-09-10 20:34:00,69.0,67.5,30.03,South,182,0.0,0.0,95,0.00,,,0.15,Wunderground v.1.15,2013-09-11 00:34:00,
2013-09-10 20:36:00,69.0,67.2,30.03,South,182,0.0,1.0,94,0.00,,,0.15,Wunderground v.1.15,2013-09-11 00:36:00,
2013-09-10 20:38:00,68.9,67.1,30.03,South,182,0.0,1.0,94,0.00,,,0.15,Wunderground v.1.15,2013-09-11 00:38:00,
2013-09-10 20:39:00,68.9,67.1,30.03,South,182,0.0,1.0,94,0.00,,,0.15,Wunderground v.1.15,2013-09-11 00:39:00,
2013-09-10 20:41:00,68.9,67.1,30.03,South,182,0.0,0.0,94,0.00,,,0.15,Wunderground v.1.15,2013-09-11 00:41:00,
2013-09-10 20:44:00,68.8,67.3,30.03,South,182,0.0,0.0,95,0.00,,,0.15,Wunderground v.1.15,2013-09-11 00:44:00,
2013-09-10 20:46:00,68.8,67.3,30.03,South,182,0.0,1.0,95,0.00,,,0.15,Wunderground v.1.15,2013-09-11 00:46:00,
2013-09-10 20:49:00,68.7,66.9,30.03,South,182,0.0,1.0,94,0.00,,,0.15,Wunderground v.1.15,2013-09-11 00:49:00,
2013-09-10 20:51:00,68.5,66.7,30.03,South,182,0.0,0.0,94,0.00,,,0.15,Wunderground v.1.15,2013-09-11 00:51:00,
2013-09-10 20:54:00,68.3,66.8,30.03,South,182,0.0,1.0,95,0.00,,,0.15,Wunderground v.1.15,2013-09-11 00:54:00,
2013-09-10 20:55:00,68.3,66.8,30.03,South,182,0.0,1.0,95,0.00,,,0.15,Wunderground v.1.15,2013-09-11 00:55:00,
2013-09-10 20:56:00,68.3,66.8,30.03,South,182,0.0,1.0,95,0.00,,,0.15,Wunderground v.1.15,2013-09-11 00:56:00,
2013-09-10 20:59:00,68.1,66.6,30.04,South,182,0.0,1.0,95,0.00,,,0.15,Wunderground v.1.15,2013-09-11 00:59:00,
2013-09-10 21:00:00,68.1,66.6,30.03,South,182,0.0,0.0,95,0.00,,,0.15,Wunderground v.1.15,2013-09-11 01:00:00,
2013-09-10 21:01:00,68.1,66.6,30.04,South,182,0.0,0.0,95,0.00,,,0.15,Wunderground v.1.15,2013-09-11 01:01:00,
2013-09-10 21:04:00,67.9,66.7,30.04,South,182,0.0,0.0,96,0.00,,,0.15,Wunderground v.1.15,2013-09-11 01:04:00,
2013-09-10 21:05:00,67.9,66.7,30.04,South,182,0.0,1.0,96,0.00,,,0.15,Wunderground v.1.15,2013-09-11 01:05:00,
2013-09-10 21:06:00,67.8,66.6,30.04,South,182,0.0,1.0,96,0.00,,,0.15,Wunderground v.1.15,2013-09-11 01:06:00,
2013-09-10 21:09:00,67.8,66.6,30.04,South,182,0.0,1.0,96,0.00,,,0.15,Wunderground v.1.15,2013-09-11 01:09:00,
2013-09-10 21:10:00,67.8,66.6,30.04,South,182,0.0,0.0,96,0.00,,,0.15,Wunderground v.1.15,2013-09-11 01:10:00,
2013-09-10 21:12:00,67.7,66.5,30.04,South,182,0.0,1.0,96,0.00,,,0.15,Wunderground v.1.15,2013-09-11 01:12:00,
2013-09-10 21:14:00,67.8,66.9,30.04,South,182,0.0,1.0,97,0.00,,,0.15,Wunderground v.1.15,2013-09-11 01:14:00,
2013-09-10 21:15:00,67.8,66.9,30.04,South,182,0.0,1.0,97,0.00,,,0.15,Wunderground v.1.15,2013-09-11 01:15:00,
2013-09-10 21:16:00,67.7,66.8,30.04,South,182,0.0,1.0,97,0.00,,,0.15,Wunderground v.1.15,2013-09-11 01:16:00,
2013-09-10 21:17:00,67.8,66.9,30.04,South,182,0.0,1.0,97,0.00,,,0.15,Wunderground v.1.15,2013-09-11 01:17:00,
2013-09-10 21:20:00,67.8,66.9,30.04,South,182,0.0,0.0,97,0.00,,,0.15,Wunderground v.1.15,2013-09-11 01:20:00,
2013-09-10 21:22:00,67.8,66.9,30.04,South,182,0.0,0.0,97,0.00,,,0.15,Wunderground v.1.15,2013-09-11 01:22:00,
2013-09-10 21:23:00,67.8,66.9,30.04,South,182,0.0,0.0,97,0.00,,,0.15,Wunderground v.1.15,2013-09-11 01:23:00,
2013-09-10 21:25:00,67.9,67.0,30.04,South,182,0.0,0.0,97,0.00,,,0.15,Wunderground v.1.15,2013-09-11 01:25:00,
2013-09-10 21:27:00,67.9,67.0,30.04,South,182,0.0,0.0,97,0.00,,,0.15,Wunderground v.1.15,2013-09-11 01:27:00,
2013-09-10 21:28:00,68.0,67.1,30.04,SE,128,0.0,1.0,97,0.00,,,0.15,Wunderground v.1.15,2013-09-11 01:28:00,
2013-09-10 21:30:00,68.0,67.1,30.04,SE,128,0.0,0.0,97,0.00,,,0.15,Wunderground v.1.15,2013-09-11 01:30:00,
2013-09-10 21:31:00,68.0,67.1,30.04,SE,128,0.0,0.0,97,0.00,,,0.15,Wunderground v.1.15,2013-09-11 01:31:00,
2013-09-10 21:32:00,68.1,67.2,30.04,SE,128,0.0,0.0,97,0.00,,,0.15,Wunderground v.1.15,2013-09-11 01:32:00,
2013-09-10 21:33:00,68.0,67.1,30.04,SE,128,0.0,0.0,97,0.00,,,0.15,Wunderground v.1.15,2013-09-11 01:33:00,
2013-09-10 21:35:00,68.0,67.1,30.04,SE,128,0.0,0.0,97,0.00,,,0.15,Wunderground v.1.15,2013-09-11 01:35:00,
2013-09-10 21:36:00,68.0,67.1,30.04,SE,128,0.0,0.0,97,0.00,,,0.15,Wunderground v.1.15,2013-09-11 01:36:00,
2013-09-10 21:37:00,68.1,67.2,30.04,SE,128,0.0,0.0,97,0.00,,,0.15,Wunderground v.1.15,2013-09-11 01:37:00,
2013-09-10 21:38:00,68.1,67.2,30.04,SE,128,0.0,1.0,97,0.00,,,0.15,Wunderground v.1.15,2013-09-11 01:38:00,
2013-09-10 21:39:00,68.2,67.3,30.04,SE,128,0.0,1.0,97,0.00,,,0.15,Wunderground v.1.15,2013-09-11 01:39:00,
2013-09-10 21:40:00,68.2,67.6,30.04,SE,128,0.0,0.0,98,0.00,,,0.15,Wunderground v.1.15,2013-09-11 01:40:00,
2013-09-10 21:41:00,68.3,67.7,30.04,SE,128,0.0,0.0,98,0.00,,,0.15,Wunderground v.1.15,2013-09-11 01:41:00,
2013-09-10 21:43:00,68.3,67.7,30.04,SE,128,0.0,0.0,98,0.00,,,0.15,Wunderground v.1.15,2013-09-11 01:43:00,
2013-09-10 21:44:00,68.4,67.8,30.04,SE,128,0.0,0.0,98,0.00,,,0.15,Wunderground v.1.15,2013-09-11 01:44:00,
2013-09-10 21:45:00,68.4,67.8,30.04,SE,128,0.0,0.0,98,0.00,,,0.15,Wunderground v.1.15,2013-09-11 01:45:00,
2013-09-10 21:46:00,68.5,67.9,30.04,ENE,73,0.0,1.0,98,0.00,,,0.15,Wunderground v.1.15,2013-09-11 01:46:00,
2013-09-10 21:48:00,68.5,67.9,30.04,ENE,73,0.0,1.0,98,0.00,,,0.15,Wunderground v.1.15,2013-09-11 01:48:00,
2013-09-10 21:49:00,68.5,67.9,30.04,ENE,73,0.0,1.0,98,0.00,,,0.15,Wunderground v.1.15,2013-09-11 01:49:00,
2013-09-10 21:50:00,68.6,68.0,30.04,ENE,73,0.0,0.0,98,0.00,,,0.15,Wunderground v.1.15,2013-09-11 01:50:00,
2013-09-10 21:52:00,68.6,68.0,30.04,ENE,73,0.0,0.0,98,0.00,,,0.15,Wunderground v.1.15,2013-09-11 01:52:00,
2013-09-10 21:54:00,68.6,68.0,30.04,ENE,73,0.0,0.0,98,0.00,,,0.15,Wunderground v.1.15,2013-09-11 01:54:00,
2013-09-10 21:55:00,68.7,68.1,30.04,ENE,73,0.0,0.0,98,0.00,,,0.15,Wunderground v.1.15,2013-09-11 01:55:00,
2013-09-10 21:56:00,68.7,68.1,30.04,ENE,73,0.0,0.0,98,0.00,,,0.15,Wunderground v.1.15,2013-09-11 01:56:00,
2013-09-10 21:57:00,68.7,68.1,30.04,ENE,73,0.0,0.0,98,0.00,,,0.15,Wunderground v.1.15,2013-09-11 01:57:00,
2013-09-10 21:59:00,68.7,68.1,30.04,ENE,73,0.0,1.0,98,0.00,,,0.15,Wunderground v.1.15,2013-09-11 01:59:00,
2013-09-10 22:00:00,68.7,68.1,30.04,ENE,73,0.0,0.0,98,0.00,,,0.15,Wunderground v.1.15,2013-09-11 02:00:00,
2013-09-10 22:01:00,68.7,68.1,30.04,ENE,73,0.0,0.0,98,0.00,,,0.15,Wunderground v.1.15,2013-09-11 02:01:00,
2013-09-10 22:02:00,68.7,68.1,30.04,ENE,73,0.0,0.0,98,0.00,,,0.15,Wunderground v.1.15,2013-09-11 02:02:00,
2013-09-10 22:04:00,68.8,68.2,30.04,ENE,73,0.0,0.0,98,0.00,,,0.15,Wunderground v.1.15,2013-09-11 02:04:00,
2013-09-10 22:05:00,68.8,68.2,30.03,ENE,73,1.0,1.0,98,0.00,,,0.15,Wunderground v.1.15,2013-09-11 02:05:00,
2013-09-10 22:06:00,68.9,68.3,30.04,ENE,73,1.0,3.0,98,0.00,,,0.15,Wunderground v.1.15,2013-09-11 02:06:00,
2013-09-10 22:07:00,68.9,68.3,30.04,ENE,73,0.0,3.0,98,0.00,,,0.15,Wunderground v.1.15,2013-09-11 02:07:00,
2013-09-10 22:08:00,68.9,68.3,30.04,ENE,73,0.0,3.0,98,0.00,,,0.15,Wunderground v.1.15,2013-09-11 02:08:00,
2013-09-10 22:09:00,68.9,68.3,30.04,ENE,73,0.0,3.0,98,0.00,,,0.15,Wunderground v.1.15,2013-09-11 02:09:00,
2013-09-10 22:11:00,68.9,68.3,30.03,NW,325,2.0,2.0,98,0.00,,,0.15,Wunderground v.1.15,2013-09-11 02:11:00,
2013-09-10 22:12:00,68.9,68.3,30.04,NW,325,0.0,2.0,98,0.00,,,0.15,Wunderground v.1.15,2013-09-11 02:12:00,
2013-09-10 22:13:00,69.0,68.4,30.03,NW,325,0.0,2.0,98,0.00,,,0.15,Wunderground v.1.15,2013-09-11 02:13:00,
2013-09-10 22:15:00,69.0,68.4,30.04,NW,325,0.0,2.0,98,0.00,,,0.15,Wunderground v.1.15,2013-09-11 02:15:00,
2013-09-10 22:16:00,69.0,68.4,30.04,NW,325,0.0,2.0,98,0.00,,,0.15,Wunderground v.1.15,2013-09-11 02:16:00,
2013-09-10 22:17:00,69.1,68.5,30.04,NW,325,0.0,2.0,98,0.00,,,0.15,Wunderground v.1.15,2013-09-11 02:17:00,
2013-09-10 22:18:00,69.1,68.5,30.04,NW,325,0.0,2.0,98,0.00,,,0.15,Wunderground v.1.15,2013-09-11 02:18:00,
2013-09-10 22:19:00,69.1,68.5,30.04,NW,325,0.0,2.0,98,0.00,,,0.15,Wunderground v.1.15,2013-09-11 02:19:00,
2013-09-10 22:20:00,69.1,68.5,30.04,NW,325,0.0,0.0,98,0.00,,,0.15,Wunderground v.1.15,2013-09-11 02:20:00,
2013-09-10 22:21:00,69.1,68.5,30.03,NW,325,0.0,0.0,98,0.00,,,0.15,Wunderground v.1.15,2013-09-11 02:21:00,
2013-09-10 22:23:00,69.1,68.5,30.03,NW,325,1.0,2.0,98,0.00,,,0.15,Wunderground v.1.15,2013-09-11 02:23:00,
2013-09-10 22:24:00,69.2,68.6,30.03,NW,325,0.0,2.0,98,0.00,,,0.15,Wunderground v.1.15,2013-09-11 02:24:00,
2013-09-10 22:25:00,69.2,68.6,30.03,NW,325,0.0,2.0,98,0.00,,,0.15,Wunderground v.1.15,2013-09-11 02:25:00,
2013-09-10 22:26:00,69.2,68.6,30.03,NW,325,0.0,2.0,98,0.00,,,0.15,Wunderground v.1.15,2013-09-11 02:26:00,
2013-09-10 22:28:00,69.2,68.6,30.03,NW,325,0.0,2.0,98,0.00,,,0.15,Wunderground v.1.15,2013-09-11 02:28:00,
2013-09-10 22:30:00,69.2,68.6,30.03,NW,325,0.0,0.0,98,0.00,,,0.15,Wunderground v.1.15,2013-09-11 02:30:00,
2013-09-10 22:32:00,69.1,68.5,30.03,NW,325,0.0,0.0,98,0.00,,,0.15,Wunderground v.1.15,2013-09-11 02:32:00,
2013-09-10 22:34:00,69.1,68.2,30.03,WSW,239,0.0,1.0,97,0.00,,,0.15,Wunderground v.1.15,2013-09-11 02:34:00,
2013-09-10 22:36:00,69.0,68.1,30.03,WSW,239,0.0,1.0,97,0.00,,,0.15,Wunderground v.1.15,2013-09-11 02:36:00,
2013-09-10 22:37:00,69.0,68.1,30.03,WSW,239,0.0,1.0,97,0.00,,,0.15,Wunderground v.1.15,2013-09-11 02:37:00,
2013-09-10 22:39:00,69.0,68.1,30.03,WSW,239,0.0,1.0,97,0.00,,,0.15,Wunderground v.1.15,2013-09-11 02:39:00,
2013-09-10 22:41:00,69.0,68.4,30.03,West,259,0.0,0.0,98,0.00,,,0.15,Wunderground v.1.15,2013-09-11 02:41:00,
2013-09-10 22:42:00,69.0,68.4,30.03,West,259,0.0,0.0,98,0.00,,,0.15,Wunderground v.1.15,2013-09-11 02:42:00,
2013-09-10 22:44:00,69.0,68.4,30.03,SW,235,0.0,2.0,98,0.00,,,0.15,Wunderground v.1.15,2013-09-11 02:44:00,
2013-09-10 22:45:00,69.0,68.4,30.03,SSW,206,0.0,2.0,98,0.00,,,0.15,Wunderground v.1.15,2013-09-11 02:45:00,
2013-09-10 22:46:00,69.0,68.4,30.03,SSW,206,0.0,2.0,98,0.00,,,0.15,Wunderground v.1.15,2013-09-11 02:46:00,
2013-09-10 22:47:00,69.0,68.4,30.03,SSW,206,1.0,2.0,98,0.00,,,0.15,Wunderground v.1.15,2013-09-11 02:47:00,
2013-09-10 22:49:00,69.0,68.4,30.03,SSW,206,0.0,2.0,98,0.00,,,0.15,Wunderground v.1.15,2013-09-11 02:49:00,
2013-09-10 22:51:00,68.9,68.3,30.03,SSW,206,0.0,0.0,98,0.00,,,0.15,Wunderground v.1.15,2013-09-11 02:51:00,
2013-09-10 22:52:00,68.9,68.3,30.03,SSW,206,0.0,0.0,98,0.00,,,0.15,Wunderground v.1.15,2013-09-11 02:52:00,
2013-09-10 22:55:00,68.9,68.3,30.03,SSW,206,0.0,0.0,98,0.00,,,0.15,Wunderground v.1.15,2013-09-11 02:55:00,
2013-09-10 22:57:00,68.9,68.3,30.03,SSW,206,0.0,0.0,98,0.00,,,0.15,Wunderground v.1.15,2013-09-11 02:57:00,
2013-09-10 23:00:00,68.8,68.2,30.03,NW,306,0.0,0.0,98,0.00,,,0.15,Wunderground v.1.15,2013-09-11 03:00:00,
2013-09-10 23:02:00,68.8,68.2,30.03,NW,306,0.0,1.0,98,0.00,,,0.15,Wunderground v.1.15,2013-09-11 03:02:00,
2013-09-10 23:03:00,68.8,68.2,30.03,NW,306,0.0,1.0,98,0.00,,,0.15,Wunderground v.1.15,2013-09-11 03:03:00,
2013-09-10 23:05:00,68.8,68.2,30.03,NW,306,0.0,1.0,98,0.00,,,0.15,Wunderground v.1.15,2013-09-11 03:05:00,
2013-09-10 23:07:00,68.8,68.2,30.03,NW,306,0.0,1.0,98,0.00,,,0.15,Wunderground v.1.15,2013-09-11 03:07:00,
2013-09-10 23:08:00,68.9,68.3,30.03,NW,306,0.0,1.0,98,0.00,,,0.15,Wunderground v.1.15,2013-09-11 03:08:00,
2013-09-10 23:10:00,68.9,68.3,30.03,NW,306,0.0,0.0,98,0.00,,,0.15,Wunderground v.1.15,2013-09-11 03:10:00,
2013-09-10 23:12:00,68.8,68.2,30.03,NW,306,0.0,0.0,98,0.00,,,0.15,Wunderground v.1.15,2013-09-11 03:12:00,
2013-09-10 23:13:00,68.9,68.3,30.03,NW,306,0.0,0.0,98,0.00,,,0.15,Wunderground v.1.15,2013-09-11 03:13:00,
2013-09-10 23:14:00,68.9,68.3,30.03,NW,306,0.0,0.0,98,0.00,,,0.15,Wunderground v.1.15,2013-09-11 03:14:00,
2013-09-10 23:16:00,68.9,68.3,30.03,NW,306,0.0,1.0,98,0.00,,,0.15,Wunderground v.1.15,2013-09-11 03:16:00,
2013-09-10 23:17:00,68.9,68.3,30.03,NW,306,0.0,1.0,98,0.00,,,0.15,Wunderground v.1.15,2013-09-11 03:17:00,
2013-09-10 23:18:00,68.9,68.3,30.03,NW,306,0.0,1.0,98,0.00,,,0.15,Wunderground v.1.15,2013-09-11 03:18:00,
2013-09-10 23:19:00,68.9,68.3,30.03,NW,306,1.0,1.0,98,0.00,,,0.15,Wunderground v.1.15,2013-09-11 03:19:00,
2013-09-10 23:21:00,68.9,68.3,30.03,NW,306,0.0,0.0,98,0.00,,,0.15,Wunderground v.1.15,2013-09-11 03:21:00,
2013-09-10 23:22:00,68.9,68.3,30.03,NW,306,0.0,0.0,98,0.00,,,0.15,Wunderground v.1.15,2013-09-11 03:22:00,
2013-09-10 23:24:00,68.9,68.3,30.03,NW,306,0.0,1.0,98,0.00,,,0.15,Wunderground v.1.15,2013-09-11 03:24:00,
2013-09-10 23:25:00,68.9,68.3,30.03,NW,306,0.0,1.0,98,0.00,,,0.15,Wunderground v.1.15,2013-09-11 03:25:00,
2013-09-10 23:26:00,68.9,68.3,30.03,NW,306,0.0,1.0,98,0.00,,,0.15,Wunderground v.1.15,2013-09-11 03:26:00,
2013-09-10 23:28:00,68.8,68.2,30.03,NW,306,1.0,1.0,98,0.00,,,0.15,Wunderground v.1.15,2013-09-11 03:28:00,
2013-09-10 23:29:00,68.8,68.2,30.03,NW,306,0.0,1.0,98,0.00,,,0.15,Wunderground v.1.15,2013-09-11 03:29:00,
2013-09-10 23:31:00,68.8,68.2,30.02,NW,306,0.0,0.0,98,0.00,,,0.15,Wunderground v.1.15,2013-09-11 03:31:00,
2013-09-10 23:33:00,68.8,68.2,30.02,NW,306,0.0,1.0,98,0.00,,,0.15,Wunderground v.1.15,2013-09-11 03:33:00,
2013-09-10 23:35:00,68.7,68.1,30.02,NW,306,0.0,1.0,98,0.00,,,0.15,Wunderground v.1.15,2013-09-11 03:35:00,
2013-09-10 23:36:00,68.7,68.1,30.02,NW,306,0.0,1.0,98,0.00,,,0.15,Wunderground v.1.15,2013-09-11 03:36:00,
2013-09-10 23:37:00,68.7,68.1,30.02,NW,306,0.0,1.0,98,0.00,,,0.15,Wunderground v.1.15,2013-09-11 03:37:00,
2013-09-10 23:38:00,68.7,68.1,30.02,NW,306,0.0,1.0,98,0.00,,,0.15,Wunderground v.1.15,2013-09-11 03:38:00,
2013-09-10 23:40:00,68.7,68.1,30.02,NW,306,0.0,0.0,98,0.00,,,0.15,Wunderground v.1.15,2013-09-11 03:40:00,
2013-09-10 23:41:00,68.7,68.1,30.02,NW,306,0.0,0.0,98,0.00,,,0.15,Wunderground v.1.15,2013-09-11 03:41:00,
2013-09-10 23:42:00,68.7,68.1,30.02,NW,306,0.0,0.0,98,0.00,,,0.15,Wunderground v.1.15,2013-09-11 03:42:00,
2013-09-10 23:43:00,68.7,68.1,30.02,NW,306,0.0,0.0,98,0.00,,,0.15,Wunderground v.1.15,2013-09-11 03:43:00,
2013-09-10 23:45:00,68.7,68.1,30.02,NW,306,0.0,1.0,98,0.00,,,0.15,Wunderground v.1.15,2013-09-11 03:45:00,
2013-09-10 23:47:00,68.7,68.1,30.02,NW,306,0.0,1.0,98,0.00,,,0.15,Wunderground v.1.15,2013-09-11 03:47:00,
2013-09-10 23:48:00,68.7,68.1,30.02,NW,306,0.0,1.0,98,0.00,,,0.15,Wunderground v.1.15,2013-09-11 03:48:00,
2013-09-10 23:49:00,68.7,68.1,30.02,NW,306,0.0,1.0,98,0.00,,,0.15,Wunderground v.1.15,2013-09-11 03:49:00,
2013-09-10 23:50:00,68.7,68.1,30.02,NW,306,0.0,0.0,98,0.00,,,0.15,Wunderground v.1.15,2013-09-11 03:50:00,
2013-09-10 23:52:00,68.7,68.1,30.02,NW,306,0.0,1.0,98,0.00,,,0.15,Wunderground v.1.15,2013-09-11 03:52:00,
2013-09-10 23:53:00,68.6,68.0,30.02,NW,306,0.0,1.0,98,0.00,,,0.15,Wunderground v.1.15,2013-09-11 03:53:00,
2013-09-10 23:54:00,68.6,68.0,30.02,NW,306,0.0,1.0,98,0.00,,,0.15,Wunderground v.1.15,2013-09-11 03:54:00,
2013-09-10 23:55:00,68.6,68.0,30.02,NW,306,0.0,1.0,98,0.00,,,0.15,Wunderground v.1.15,2013-09-11 03:55:00,
2013-09-10 23:57:00,68.6,68.0,30.02,NW,306,0.0,1.0,98,0.00,,,0.15,Wunderground v.1.15,2013-09-11 03:57:00,
2013-09-10 23:58:00,68.5,67.9,30.02,NW,306,0.0,1.0,98,0.00,,,0.15,Wunderground v.1.15,2013-09-11 03:58:00,
2013-09-10 23:59:00,68.5,67.9,30.02,NW,306,0.0,1.0,98,0.00,,,0.15,Wunderground v.1.15,2013-09-11 03:59:00,